EW4595 Weather Reports


time (UTC)temp
C
wind
direction
speed
KPH
gust
KPH
rain 1hr
cm
rain 24hr
cm
rain mn
cm
humidity
%
barometer
mb
20260508195306 15 257 12.9 29.0 0.00 0.00 0.00 32 1005.1
20260508195204 14 268 11.3 29.0 0.00 0.00 0.00 32 1005.2
20260508195105 14 267 14.5 29.0 0.00 0.00 0.00 32 1005.5
20260508195003 14 267 14.5 29.0 0.00 0.00 0.00 33 1005.3
20260508194904 14 258 16.1 27.4 0.00 0.00 0.00 33 1005.4
20260508194808 15 258 9.7 24.1 0.00 0.00 0.00 34 1005.3
20260508194703 15 253 12.9 24.1 0.00 0.00 0.00 34 1005.3
20260508194603 14 247 14.5 22.5 0.00 0.00 0.00 34 1005.4
20260508194503 14 241 12.9 22.5 0.00 0.00 0.00 34 1005.4
20260508194403 14 240 12.9 22.5 0.00 0.00 0.00 34 1005.4
20260508194303 14 244 11.3 22.5 0.00 0.00 0.00 35 1005.3
20260508194205 14 237 11.3 20.9 0.00 0.00 0.00 35 1005.3
20260508194116 15 249 11.3 20.9 0.00 0.00 0.00 35 1005.4
20260508194103 15 251 11.3 20.9 0.00 0.00 0.00 35 1005.4
20260508194005 15 254 4.8 20.9 0.00 0.00 0.00 35 1005.2
20260508193803 14 249 12.9 20.9 0.00 0.00 0.00 34 1005.3
20260508193703 14 252 12.9 24.1 0.00 0.00 0.00 34 1005.4
20260508193605 14 245 12.9 24.1 0.00 0.00 0.00 34 1005.3
20260508193503 15 244 12.9 24.1 0.00 0.00 0.00 33 1005.4
20260508193405 15 243 4.8 24.1 0.00 0.00 0.00 35 1005.3
20260508193203 14 247 12.9 24.1 0.00 0.00 0.00 34 1005.4
20260508193104 14 243 12.9 24.1 0.00 0.00 0.00 34 1005.4
20260508193004 14 242 6.4 20.9 0.00 0.00 0.00 36 1005.5
20260508192906 14 241 6.4 20.9 0.00 0.00 0.00 36 1005.2
20260508192804 14 246 12.9 20.9 0.00 0.00 0.00 35 1005.3
20260508192704 14 246 9.7 20.9 0.00 0.00 0.00 35 1005.2
20260508192607 14 251 6.4 24.1 0.00 0.00 0.00 36 1005.4
20260508192504 14 254 8.0 24.1 0.00 0.00 0.00 35 1005.2
20260508192407 14 257 14.5 24.1 0.00 0.00 0.00 35 1005.2
20260508192306 14 266 11.3 24.1 0.00 0.00 0.00 35 1005.1
20260508192205 14 275 11.3 24.1 0.00 0.00 0.00 34 1005.3
20260508192103 14 280 12.9 24.1 0.00 0.00 0.00 34 1005.4
20260508192005 14 282 11.3 22.5 0.00 0.00 0.00 34 1005.5
20260508191906 14 278 14.5 24.1 0.00 0.00 0.00 34 1005.4
20260508191803 14 259 14.5 27.4 0.00 0.00 0.00 34 1005.4
20260508191704 14 244 12.9 27.4 0.00 0.00 0.00 34 1005.3
20260508191616 14 243 12.9 27.4 0.00 0.00 0.00 34 1005.4
20260508191604 14 240 12.9 27.4 0.00 0.00 0.00 34 1005.4
20260508191507 14 238 11.3 27.4 0.00 0.00 0.00 35 1005.4
20260508191303 14 242 12.9 27.4 0.00 0.00 0.00 35 1005.3
20260508191204 14 237 9.7 25.7 0.00 0.00 0.00 36 1005.4
20260508191104 14 232 17.7 25.7 0.00 0.00 0.00 35 1005.2
20260508191005 14 238 14.5 25.7 0.00 0.00 0.00 35 1005.4
20260508190904 14 248 12.9 25.7 0.00 0.00 0.00 35 1005.2
20260508190804 15 250 12.9 25.7 0.00 0.00 0.00 35 1005.4
20260508190705 15 256 12.9 25.7 0.00 0.00 0.00 36 1005.4
20260508190604 15 260 12.9 29.0 0.00 0.00 0.00 35 1005.4
20260508190503 15 257 12.9 29.0 0.00 0.00 0.00 35 1005.5
20260508190405 14 252 16.1 29.0 0.00 0.00 0.00 35 1005.5
20260508190303 15 250 16.1 29.0 0.00 0.00 0.00 35 1005.3
20260508190204 15 250 17.7 29.0 0.00 0.00 0.00 36 1005.4
20260508190105 15 250 14.5 29.0 0.00 0.00 0.00 35 1005.3
20260508190004 15 246 9.7 24.1 0.00 0.00 0.00 36 1005.3
20260508185904 15 242 9.7 24.1 0.00 0.00 0.00 36 1005.2
20260508185804 14 241 14.5 24.1 0.00 0.00 0.00 36 1005.3
20260508185704 15 245 12.9 20.9 0.00 0.00 0.00 36 1005.2
20260508185606 15 246 9.7 20.9 0.00 0.00 0.00 37 1005.4
20260508185504 15 246 12.9 20.9 0.00 0.00 0.00 37 1005.3
20260508185415 15 244 12.9 20.9 0.00 0.00 0.00 37 1005.5
20260508185403 15 246 9.7 22.5 0.00 0.00 0.00 37 1005.4
20260508185306 15 253 9.7 22.5 0.00 0.00 0.00 37 1005.4
20260508185103 15 271 6.4 29.0 0.00 0.00 0.00 37 1005.6
20260508185003 15 265 9.7 32.2 0.00 0.00 0.00 37 1005.5
20260508184903 14 263 16.1 32.2 0.00 0.00 0.00 36 1005.5
20260508184804 15 258 6.4 32.2 0.00 0.00 0.00 36 1005.4
20260508184707 14 250 12.9 32.2 0.00 0.00 0.00 36 1005.5
20260508184604 14 237 17.7 32.2 0.00 0.00 0.00 36 1005.5
20260508184504 15 233 14.5 32.2 0.00 0.00 0.00 36 1005.5
20260508184403 15 238 11.3 32.2 0.00 0.00 0.00 36 1005.3
20260508184320 14 232 14.5 32.2 0.00 0.00 0.00 35 1005.5
20260508184303 14 231 14.5 32.2 0.00 0.00 0.00 35 1005.5
20260508184205 15 232 14.5 25.7 0.00 0.00 0.00 36 1005.7
20260508184015 15 245 12.9 24.1 0.00 0.00 0.00 36 1005.5
20260508184005 15 248 12.9 24.1 0.00 0.00 0.00 36 1005.5
20260508183903 14 245 14.5 24.1 0.00 0.00 0.00 36 1005.5
20260508183704 14 260 14.5 24.1 0.00 0.00 0.00 37 1005.7
20260508183611 15 256 9.7 20.9 0.00 0.00 0.00 37 1005.6
20260508183504 15 257 11.3 20.9 0.00 0.00 0.00 37 1005.7
20260508183404 15 261 12.9 22.5 0.00 0.00 0.00 38 1005.5
20260508183204 14 260 9.7 22.5 0.00 0.00 0.00 38 1005.5
20260508183104 14 270 9.7 27.4 0.00 0.00 0.00 37 1005.3
20260508183005 14 277 12.9 27.4 0.00 0.00 0.00 37 1005.6
20260508182904 15 280 12.9 27.4 0.00 0.00 0.00 38 1005.6
20260508182804 15 276 6.4 27.4 0.00 0.00 0.00 39 1005.5
20260508182704 14 277 12.9 27.4 0.00 0.00 0.00 39 1005.9
20260508182606 14 270 14.5 27.4 0.00 0.00 0.00 38 1005.9
20260508182504 14 262 16.1 27.4 0.00 0.00 0.00 38 1005.7
20260508182403 15 260 14.5 27.4 0.00 0.00 0.00 38 1005.7
20260508182306 15 254 6.4 27.4 0.00 0.00 0.00 38 1005.8
20260508182205 14 256 14.5 27.4 0.00 0.00 0.00 39 1005.5
20260508182104 14 252 22.5 27.4 0.00 0.00 0.00 38 1005.7
20260508182005 15 247 9.7 27.4 0.00 0.00 0.00 39 1005.7
20260508181903 14 245 14.5 33.8 0.00 0.00 0.00 39 1005.6
20260508181803 15 250 12.9 33.8 0.00 0.00 0.00 38 1005.6
20260508181704 14 252 6.4 33.8 0.00 0.00 0.00 39 1005.5
20260508181604 14 252 8.0 33.8 0.00 0.00 0.00 38 1005.7
20260508181505 14 254 12.9 33.8 0.00 0.00 0.00 38 1005.6
20260508181403 14 254 16.1 33.8 0.00 0.00 0.00 39 1005.9
20260508181216 14 245 17.7 33.8 0.00 0.00 0.00 38 1005.6
20260508181205 14 243 17.7 33.8 0.00 0.00 0.00 38 1005.6
20260508181105 14 247 16.1 33.8 0.00 0.00 0.00 38 1005.9
20260508180803 14 260 16.1 33.8 0.00 0.00 0.00 38 1005.7
20260508180704 15 257 16.1 33.8 0.00 0.00 0.00 38 1005.9
20260508180604 14 250 14.5 24.1 0.00 0.00 0.00 37 1005.5
20260508180409 14 216 16.1 33.8 0.00 0.00 0.00 36 1006.0
20260508180304 15 208 12.9 33.8 0.00 0.00 0.00 37 1005.8
20260508180206 15 213 9.7 33.8 0.00 0.00 0.00 37 1005.7
20260508180115 14 222 11.3 33.8 0.00 0.00 0.00 37 1005.9
20260508180103 14 226 11.3 33.8 0.00 0.00 0.00 37 1005.9
20260508180004 14 249 17.7 33.8 0.00 0.00 0.00 37 1005.6
20260508175804 14 270 19.3 29.0 0.00 0.00 0.00 38 1005.9
20260508175705 14 269 12.9 29.0 0.00 0.00 0.00 39 1005.8
20260508175605 14 262 17.7 29.0 0.00 0.00 0.00 39 1005.9
20260508175505 14 257 17.7 29.0 0.00 0.00 0.00 39 1005.9
20260508175405 14 258 11.3 29.0 0.00 0.00 0.00 38 1005.8
20260508175306 14 257 12.9 29.0 0.00 0.00 0.00 38 1005.9
20260508175203 14 262 17.7 29.0 0.00 0.00 0.00 38 1005.9
20260508175103 14 262 14.5 27.4 0.00 0.00 0.00 38 1006.1
20260508175003 14 251 9.7 33.8 0.00 0.00 0.00 39 1005.8
20260508174903 14 230 11.3 33.8 0.00 0.00 0.00 39 1005.9
20260508174809 14 219 16.1 33.8 0.00 0.00 0.00 39 1005.9
20260508174703 14 197 14.5 33.8 0.00 0.00 0.00 38 1005.8
20260508174604 13 181 16.1 33.8 0.00 0.00 0.00 38 1005.7
20260508174505 14 173 17.7 33.8 0.00 0.00 0.00 38 1005.8
20260508174404 13 186 20.9 29.0 0.00 0.00 0.00 38 1006.1
20260508174304 14 203 12.9 29.0 0.00 0.00 0.00 38 1005.8
20260508174204 14 220 12.9 29.0 0.00 0.00 0.00 38 1005.9
20260508174104 14 231 14.5 29.0 0.00 0.00 0.00 38 1005.9
20260508174004 14 237 12.9 29.0 0.00 0.00 0.00 38 1006.1
20260508173907 13 236 17.7 29.0 0.00 0.00 0.00 38 1005.8
20260508173805 13 241 17.7 29.0 0.00 0.00 0.00 38 1005.9
20260508173703 14 247 17.7 27.4 0.00 0.00 0.00 38 1006.1
20260508173604 14 263 11.3 27.4 0.00 0.00 0.00 38 1005.9
20260508173504 14 260 14.5 27.4 0.00 0.00 0.00 39 1005.8
20260508173404 14 258 14.5 27.4 0.00 0.00 0.00 40 1005.9
20260508173305 14 259 17.7 27.4 0.00 0.00 0.00 38 1005.9
20260508173203 14 255 8.0 27.4 0.00 0.00 0.00 39 1006.0
20260508173005 14 246 11.3 32.2 0.00 0.00 0.00 40 1006.0
20260508172904 13 250 16.1 32.2 0.00 0.00 0.00 40 1006.1
20260508172803 14 256 11.3 32.2 0.00 0.00 0.00 40 1005.9
20260508172707 13 258 8.0 32.2 0.00 0.00 0.00 40 1005.9
20260508172604 13 263 20.9 32.2 0.00 0.00 0.00 39 1005.8
20260508172515 14 270 12.9 24.1 0.00 0.00 0.00 40 1006.0
20260508172403 14 257 9.7 25.7 0.00 0.00 0.00 40 1005.6
20260508172322 14 249 11.3 25.7 0.00 0.00 0.00 40 1005.9
20260508172203 14 237 9.7 25.7 0.00 0.00 0.00 40 1006.0
20260508172003 14 217 12.9 25.7 0.00 0.00 0.00 40 1005.9
20260508171903 13 221 14.5 25.7 0.00 0.00 0.00 40 1005.9
20260508171815 13 221 12.9 25.7 0.00 0.00 0.00 40 1005.9
20260508171803 13 223 16.1 25.7 0.00 0.00 0.00 40 1005.9
20260508171703 14 222 12.9 25.7 0.00 0.00 0.00 40 1006.0
20260508171506 13 244 14.5 32.2 0.00 0.00 0.00 40 1005.8
20260508171404 13 245 12.9 32.2 0.00 0.00 0.00 41 1006.1
20260508171308 13 247 16.1 32.2 0.00 0.00 0.00 41 1006.1
20260508171203 13 249 17.7 32.2 0.00 0.00 0.00 40 1006.1
20260508171104 13 254 17.7 32.2 0.00 0.00 0.00 41 1006.0
20260508171005 13 253 12.9 27.4 0.00 0.00 0.00 41 1006.4
20260508170903 13 244 14.5 29.0 0.00 0.00 0.00 41 1006.1
20260508170804 13 247 9.7 29.0 0.00 0.00 0.00 41 1006.2
20260508170703 13 247 12.9 29.0 0.00 0.00 0.00 41 1006.1
20260508170604 13 241 17.7 29.0 0.00 0.00 0.00 42 1006.4
20260508170403 13 251 17.7 29.0 0.00 0.00 0.00 42 1006.2
20260508170306 13 247 14.5 29.0 0.00 0.00 0.00 42 1006.2
20260508170203 13 258 12.9 33.8 0.00 0.00 0.00 41 1006.1
20260508170004 13 254 14.5 33.8 0.00 0.00 0.00 41 1005.9
20260508165903 14 233 8.0 37.0 0.00 0.00 0.00 41 1006.1
20260508165805 13 223 14.5 37.0 0.00 0.00 0.00 42 1006.3
20260508165703 13 208 12.9 37.0 0.00 0.00 0.00 42 1006.3
20260508165603 13 211 12.9 37.0 0.00 0.00 0.00 42 1006.3
20260508165504 13 208 19.3 37.0 0.00 0.00 0.00 42 1006.2
20260508165404 14 218 12.9 29.0 0.00 0.00 0.00 42 1006.4
20260508165315 13 217 16.1 29.0 0.00 0.00 0.00 42 1006.3
20260508165306 13 221 16.1 29.0 0.00 0.00 0.00 42 1006.3
20260508165204 14 224 6.4 29.0 0.00 0.00 0.00 42 1006.3
20260508165004 13 217 12.9 29.0 0.00 0.00 0.00 42 1006.1
20260508164906 13 221 19.3 29.0 0.00 0.00 0.00 42 1006.5
20260508164804 13 232 11.3 29.0 0.00 0.00 0.00 42 1006.5
20260508164705 13 232 11.3 29.0 0.00 0.00 0.00 42 1006.3
20260508164615 13 231 14.5 29.0 0.00 0.00 0.00 42 1006.4
20260508164603 13 230 12.9 29.0 0.00 0.00 0.00 43 1006.2
20260508164504 13 234 14.5 29.0 0.00 0.00 0.00 43 1006.3
20260508164304 13 228 11.3 29.0 0.00 0.00 0.00 43 1006.4
20260508164204 13 229 16.1 29.0 0.00 0.00 0.00 43 1006.7
20260508164104 13 229 17.7 29.0 0.00 0.00 0.00 42 1006.5
20260508164016 13 235 11.3 25.7 0.00 0.00 0.00 44 1006.4
20260508164003 13 238 11.3 25.7 0.00 0.00 0.00 44 1006.4
20260508163903 13 250 12.9 25.7 0.00 0.00 0.00 43 1006.6
20260508163704 13 229 8.0 25.7 0.00 0.00 0.00 44 1006.5
20260508163604 13 223 12.9 25.7 0.00 0.00 0.00 44 1006.5
20260508163506 13 231 16.1 37.0 0.00 0.00 0.00 44 1006.7
20260508163418 13 221 16.1 40.2 0.00 0.00 0.00 44 1006.6
20260508163405 13 219 17.7 40.2 0.00 0.00 0.00 44 1006.7
20260508163303 13 230 12.9 40.2 0.00 0.00 0.00 44 1006.6
20260508163104 13 243 14.5 40.2 0.00 0.00 0.00 44 1006.7
20260508163018 13 245 24.1 40.2 0.00 0.00 0.00 43 1006.7
20260508163003 13 244 19.3 40.2 0.00 0.00 0.00 43 1006.8
20260508162904 13 251 19.3 40.2 0.00 0.00 0.00 43 1007.0
20260508162814 13 249 16.1 29.0 0.00 0.00 0.00 43 1006.7
20260508162704 13 245 12.9 29.0 0.00 0.00 0.00 44 1007.0
20260508162617 13 238 16.1 29.0 0.00 0.00 0.00 44 1006.7
20260508162307 13 242 19.3 29.0 0.00 0.00 0.00 46 1006.9
20260508162205 13 244 17.7 25.7 0.00 0.00 0.00 46 1006.7
20260508162106 13 246 14.5 25.7 0.00 0.00 0.00 46 1006.7
20260508162003 13 244 16.1 25.7 0.00 0.00 0.00 46 1006.8
20260508161903 13 247 12.9 25.7 0.00 0.00 0.00 46 1006.7
20260508161803 13 243 12.9 22.5 0.00 0.00 0.00 46 1006.7
20260508161703 13 239 12.9 22.5 0.00 0.00 0.00 46 1007.0
20260508161605 13 243 9.7 29.0 0.00 0.00 0.00 46 1006.8
20260508161513 13 244 11.3 29.0 0.00 0.00 0.00 46 1006.8
20260508161406 13 242 8.0 29.0 0.00 0.00 0.00 46 1007.0
20260508161303 13 244 11.3 29.0 0.00 0.00 0.00 46 1007.2
20260508161203 13 246 8.0 29.0 0.00 0.00 0.00 46 1006.9
20260508161104 12 244 17.7 29.0 0.00 0.00 0.00 46 1006.9
20260508161003 12 241 17.7 29.0 0.00 0.00 0.00 46 1006.8
20260508160918 12 233 17.7 27.4 0.00 0.00 0.00 46 1007.0
20260508160903 12 231 17.7 27.4 0.00 0.00 0.00 46 1007.0
20260508160808 12 228 16.1 29.0 0.00 0.00 0.00 46 1007.0
20260508160503 12 232 12.9 32.2 0.00 0.00 0.00 47 1007.3
20260508160416 12 240 14.5 32.2 0.00 0.00 0.00 46 1007.1
20260508160403 12 241 14.5 32.2 0.00 0.00 0.00 46 1007.1
20260508160320 12 244 14.5 32.2 0.00 0.00 0.00 46 1007.1
20260508160303 12 246 14.5 32.2 0.00 0.00 0.00 46 1007.1
20260508160004 12 228 14.5 24.1 0.00 0.00 0.00 46 1007.1
20260508155904 12 229 9.7 24.1 0.00 0.00 0.00 47 1007.0
20260508155804 12 232 16.1 24.1 0.00 0.00 0.00 47 1007.3
20260508155716 12 237 16.1 29.0 0.00 0.00 0.00 47 1007.4
20260508155706 12 236 16.1 29.0 0.00 0.00 0.00 47 1007.4
20260508155603 12 233 14.5 29.0 0.00 0.00 0.00 47 1007.1
20260508155513 12 234 9.7 29.0 0.00 0.00 0.00 47 1007.1
20260508155407 12 225 12.9 32.2 0.00 0.00 0.00 47 1007.3
20260508155205 12 228 17.7 32.2 0.00 0.00 0.00 47 1007.3
20260508155104 12 227 12.9 32.2 0.00 0.00 0.00 46 1007.4
20260508155004 12 235 17.7 32.2 0.00 0.00 0.00 47 1007.1
20260508154803 12 243 6.4 32.2 0.00 0.00 0.00 48 1007.3
20260508154704 12 245 17.7 32.2 0.00 0.00 0.00 48 1007.2
20260508154621 12 244 16.1 32.2 0.00 0.00 0.00 47 1007.2
20260508154603 12 251 12.9 29.0 0.00 0.00 0.00 48 1007.2
20260508154303 12 243 14.5 29.0 0.00 0.00 0.00 48 1007.2
20260508154205 12 254 17.7 29.0 0.00 0.00 0.00 48 1007.3
20260508154119 12 264 17.7 29.0 0.00 0.00 0.00 48 1007.4
20260508154104 12 258 17.7 29.0 0.00 0.00 0.00 48 1007.4
20260508154017 12 243 12.9 27.4 0.00 0.00 0.00 49 1007.3
20260508154003 12 242 12.9 27.4 0.00 0.00 0.00 49 1007.3
20260508153704 12 222 17.7 27.4 0.00 0.00 0.00 49 1007.5
20260508153603 12 232 17.7 33.8 0.00 0.00 0.00 49 1007.5
20260508153504 12 237 16.1 33.8 0.00 0.00 0.00 49 1007.3
20260508153403 12 232 17.7 33.8 0.00 0.00 0.00 49 1007.5
20260508153206 12 243 17.7 33.8 0.00 0.00 0.00 49 1007.4
20260508153103 12 234 17.7 33.8 0.00 0.00 0.00 49 1007.4
20260508152903 12 243 14.5 27.4 0.00 0.00 0.00 50 1007.6
20260508152804 12 241 14.5 27.4 0.00 0.00 0.00 50 1007.5
20260508152704 12 238 17.7 27.4 0.00 0.00 0.00 50 1007.4
20260508152605 12 234 9.7 25.7 0.00 0.00 0.00 50 1007.3
20260508152415 12 233 12.9 25.7 0.00 0.00 0.00 50 1007.4
20260508152403 12 232 12.9 25.7 0.00 0.00 0.00 50 1007.4
20260508152306 12 238 9.7 27.4 0.00 0.00 0.00 50 1007.2
20260508152103 11 251 12.9 27.4 0.00 0.00 0.00 51 1007.5
20260508152003 11 249 16.1 27.4 0.00 0.00 0.00 51 1007.5
20260508151903 11 252 12.9 27.4 0.00 0.00 0.00 51 1007.6
20260508151805 11 255 16.1 25.7 0.00 0.00 0.00 50 1007.5
20260508151705 11 251 17.7 25.7 0.00 0.00 0.00 50 1007.5
20260508151613 11 245 11.3 27.4 0.00 0.00 0.00 51 1007.4
20260508151603 11 240 11.3 27.4 0.00 0.00 0.00 51 1007.4
20260508151505 11 242 8.0 27.4 0.00 0.00 0.00 51 1007.5
20260508151303 11 234 9.7 32.2 0.00 0.00 0.00 52 1007.5
20260508151205 11 233 12.9 32.2 0.00 0.00 0.00 52 1007.5
20260508151104 11 229 17.7 32.2 0.00 0.00 0.00 52 1007.5
20260508151004 11 230 16.1 32.2 0.00 0.00 0.00 52 1007.6
20260508150803 11 230 16.1 33.8 0.00 0.00 0.00 51 1007.7
20260508150706 11 230 14.5 33.8 0.00 0.00 0.00 51 1007.6
20260508150604 11 222 17.7 33.8 0.00 0.00 0.00 52 1007.6
20260508150504 11 217 17.7 33.8 0.00 0.00 0.00 52 1007.8
20260508150404 11 222 17.7 33.8 0.00 0.00 0.00 52 1007.5
20260508150304 11 222 12.9 32.2 0.00 0.00 0.00 52 1007.6
20260508150204 11 224 17.7 32.2 0.00 0.00 0.00 52 1007.7
20260508150105 11 236 12.9 27.4 0.00 0.00 0.00 52 1007.7
20260508150005 11 241 17.7 27.4 0.00 0.00 0.00 51 1007.5
20260508145904 11 231 11.3 27.4 0.00 0.00 0.00 51 1007.7
20260508145806 11 230 8.0 43.5 0.00 0.00 0.00 52 1007.8
20260508145704 11 227 11.3 43.5 0.00 0.00 0.00 52 1007.5
20260508145604 11 231 9.7 43.5 0.00 0.00 0.00 52 1007.6
20260508145504 11 236 9.7 43.5 0.00 0.00 0.00 52 1007.6
20260508145404 11 244 20.9 43.5 0.00 0.00 0.00 51 1007.7
20260508145306 11 248 20.9 43.5 0.00 0.00 0.00 51 1007.7
20260508145205 11 248 12.9 29.0 0.00 0.00 0.00 52 1007.5
20260508145103 11 238 14.5 37.0 0.00 0.00 0.00 52 1007.7
20260508145005 11 240 17.7 40.2 0.00 0.00 0.00 51 1007.6
20260508133914 10 227 9.7 24.1 0.00 0.00 0.00 59 1007.8
20260508131904 10 240 11.3 33.8 0.00 0.00 0.00 59 1007.4
20260508131806 10 239 12.9 33.8 0.00 0.00 0.00 58 1007.6
20260508131705 10 244 16.1 25.7 0.00 0.00 0.00 59 1007.6
20260508131605 10 237 14.5 25.7 0.00 0.00 0.00 59 1007.2
20260508131504 10 236 12.9 25.7 0.00 0.00 0.00 59 1007.4
20260508131417 10 226 9.7 25.7 0.00 0.00 0.00 59 1007.2
20260508131404 10 228 9.7 25.7 0.00 0.00 0.00 59 1007.2
20260508131305 10 233 11.3 25.7 0.00 0.00 0.00 59 1007.5
20260508131214 10 234 9.7 25.7 0.00 0.00 0.00 59 1007.4
20260508131104 10 236 12.9 29.0 0.00 0.00 0.00 59 1007.3
20260508130904 10 253 11.3 29.0 0.00 0.00 0.00 60 1007.4
20260508130805 10 249 12.9 29.0 0.00 0.00 0.00 61 1007.4
20260508130704 10 246 12.9 29.0 0.00 0.00 0.00 61 1007.2
20260508130604 9 251 17.7 29.0 0.00 0.00 0.00 60 1007.3
20260508130505 9 247 12.9 24.1 0.00 0.00 0.00 61 1007.1
20260508130405 9 246 12.9 24.1 0.00 0.00 0.00 61 1007.1
20260508130309 9 256 12.9 24.1 0.00 0.00 0.00 61 1007.1
20260508130205 9 257 12.9 24.1 0.00 0.00 0.00 61 1007.1
20260508130113 9 253 12.9 24.1 0.00 0.00 0.00 61 1007.1
20260508130004 9 249 12.9 24.1 0.00 0.00 0.00 61 1006.9
20260508125803 9 239 14.5 22.5 0.00 0.00 0.00 61 1006.9
20260508125705 9 249 8.0 22.5 0.00 0.00 0.00 61 1007.1
20260508125607 9 251 9.7 22.5 0.00 0.00 0.00 61 1006.9
20260508125503 9 250 14.5 25.7 0.00 0.00 0.00 61 1007.1
20260508125204 9 242 14.5 25.7 0.00 0.00 0.00 61 1007.0
20260508125103 9 240 16.1 25.7 0.00 0.00 0.00 61 1007.2
20260508125003 9 239 8.0 25.7 0.00 0.00 0.00 61 1007.1
20260508124903 9 242 11.3 29.0 0.00 0.00 0.00 61 1007.0
20260508124805 9 245 8.0 29.0 0.00 0.00 0.00 61 1006.9
20260508124704 9 245 8.0 29.0 0.00 0.00 0.00 61 1007.0
20260508124604 9 247 17.7 29.0 0.00 0.00 0.00 61 1007.0
20260508124504 9 252 6.4 29.0 0.00 0.00 0.00 61 1007.2
20260508124303 9 260 12.9 29.0 0.00 0.00 0.00 61 1007.0
20260508124205 9 259 11.3 27.4 0.00 0.00 0.00 62 1007.0
20260508124104 9 253 17.7 32.2 0.00 0.00 0.00 61 1007.1
20260508124005 9 249 9.7 32.2 0.00 0.00 0.00 62 1006.7
20260508123903 8 252 12.9 32.2 0.00 0.00 0.00 62 1007.0
20260508123803 8 246 11.3 32.2 0.00 0.00 0.00 62 1006.9
20260508123604 8 243 12.9 32.2 0.00 0.00 0.00 62 1006.9
20260508123505 8 243 16.1 27.4 0.00 0.00 0.00 62 1006.8
20260508123403 8 241 6.4 25.7 0.00 0.00 0.00 62 1006.7
20260508123303 8 251 12.9 25.7 0.00 0.00 0.00 62 1006.9
20260508123206 8 269 12.9 27.4 0.00 0.00 0.00 62 1006.8
20260508123103 8 284 6.4 27.4 0.00 0.00 0.00 62 1006.9
20260508123004 8 277 16.1 29.0 0.00 0.00 0.00 62 1006.6
20260508122805 8 267 9.7 29.0 0.00 0.00 0.00 62 1006.9
20260508122705 8 259 17.7 29.0 0.00 0.00 0.00 62 1006.6
20260508122605 8 246 17.7 29.0 0.00 0.00 0.00 61 1006.7
20260508122504 8 249 11.3 24.1 0.00 0.00 0.00 62 1006.9
20260508122403 8 248 12.9 24.1 0.00 0.00 0.00 62 1006.8
20260508122306 8 248 8.0 24.1 0.00 0.00 0.00 62 1006.8
20260508122219 8 248 9.7 24.1 0.00 0.00 0.00 62 1006.7
20260508122204 8 248 11.3 24.1 0.00 0.00 0.00 62 1006.7
20260508121904 8 247 8.0 27.4 0.00 0.00 0.00 62 1006.7
20260508121805 8 251 8.0 27.4 0.00 0.00 0.00 62 1006.6
20260508121704 8 248 9.7 27.4 0.00 0.00 0.00 62 1006.7
20260508121604 8 242 14.5 27.4 0.00 0.00 0.00 62 1006.8
20260508121505 8 243 16.1 27.4 0.00 0.00 0.00 62 1007.0
20260508121417 8 236 12.9 25.7 0.00 0.00 0.00 62 1006.8
20260508121403 8 234 11.3 25.7 0.00 0.00 0.00 62 1006.6
20260508121305 8 231 8.0 27.4 0.00 0.00 0.00 62 1006.7
20260508121104 8 244 17.7 27.4 0.00 0.00 0.00 62 1006.8
20260508121007 8 245 11.3 27.4 0.00 0.00 0.00 62 1006.9
20260508120805 8 242 12.9 27.4 0.00 0.00 0.00 62 1006.7
20260508120703 8 238 11.3 25.7 0.00 0.00 0.00 63 1006.5
20260508120604 8 234 16.1 25.7 0.00 0.00 0.00 62 1006.4
20260508120507 8 232 14.5 24.1 0.00 0.00 0.00 62 1006.5
20260508120408 8 235 12.9 24.1 0.00 0.00 0.00 62 1006.7
20260508120304 8 236 16.1 24.1 0.00 0.00 0.00 62 1006.7
20260508120203 8 243 12.9 20.9 0.00 0.00 0.00 62 1006.6
20260508120105 8 249 11.3 20.9 0.00 0.00 0.00 62 1006.4
20260508120005 8 247 11.3 24.1 0.00 0.00 0.00 63 1006.6
20260508115805 8 243 6.4 29.0 0.00 0.00 0.00 63 1006.6
20260508115705 8 235 11.3 29.0 0.00 0.00 0.00 63 1006.6
20260508115606 8 229 12.9 29.0 0.00 0.00 0.00 63 1006.6
20260508115505 8 227 12.9 29.0 0.00 0.00 0.00 63 1006.5
20260508115306 8 211 16.1 24.1 0.00 0.00 0.00 63 1006.5
20260508115203 8 216 9.7 20.9 0.00 0.00 0.00 63 1006.4
20260508115103 8 218 9.7 24.1 0.00 0.00 0.00 63 1006.4
20260508115005 8 219 12.9 24.1 0.00 0.00 0.00 63 1006.4
20260508114903 8 238 12.9 24.1 0.00 0.00 0.00 63 1006.4
20260508114803 8 237 8.0 24.1 0.00 0.00 0.00 63 1006.7
20260508114705 8 238 12.9 24.1 0.00 0.00 0.00 63 1006.3
20260508114603 8 251 8.0 24.1 0.00 0.00 0.00 63 1006.5
20260508114504 8 258 6.4 24.1 0.00 0.00 0.00 63 1006.4
20260508114305 7 247 11.3 24.1 0.00 0.00 0.00 63 1006.1
20260508114203 7 240 12.9 27.4 0.00 0.00 0.00 63 1006.2
20260508114003 7 229 12.9 27.4 0.00 0.00 0.00 63 1006.5
20260508113904 7 236 14.5 27.4 0.00 0.00 0.00 63 1006.5
20260508113805 7 247 19.3 29.0 0.00 0.00 0.00 63 1006.3
20260508113715 7 253 14.5 29.0 0.00 0.00 0.00 63 1006.1
20260508113706 7 252 14.5 29.0 0.00 0.00 0.00 63 1006.1
20260508113605 7 250 11.3 29.0 0.00 0.00 0.00 63 1006.3
20260508113404 7 248 14.5 32.2 0.00 0.00 0.00 63 1006.2
20260508113304 7 244 6.4 32.2 0.00 0.00 0.00 63 1006.2
20260508113203 7 246 12.9 32.2 0.00 0.00 0.00 63 1006.5
20260508113105 7 248 11.3 32.2 0.00 0.00 0.00 63 1006.3
20260508113004 7 255 12.9 25.7 0.00 0.00 0.00 63 1006.3
20260508112905 7 251 12.9 25.7 0.00 0.00 0.00 63 1006.3
20260508112804 7 250 14.5 25.7 0.00 0.00 0.00 63 1006.3
20260508112704 7 251 14.5 25.7 0.00 0.00 0.00 63 1006.3
20260508112604 7 256 16.1 25.7 0.00 0.00 0.00 63 1006.5
20260508112504 7 250 16.1 25.7 0.00 0.00 0.00 63 1006.4
20260508112404 7 253 12.9 24.1 0.00 0.00 0.00 63 1006.2
20260508112306 7 251 8.0 24.1 0.00 0.00 0.00 63 1006.3
20260508112204 7 247 12.9 24.1 0.00 0.00 0.00 63 1006.3
20260508112107 7 234 12.9 24.1 0.00 0.00 0.00 63 1006.5
20260508112004 7 225 16.1 24.1 0.00 0.00 0.00 62 1006.2
20260508111905 7 222 8.0 24.1 0.00 0.00 0.00 63 1006.2
20260508111804 7 226 6.4 24.1 0.00 0.00 0.00 63 1006.3
20260508111704 7 230 12.9 24.1 0.00 0.00 0.00 63 1006.3
20260508111616 7 234 12.9 24.1 0.00 0.00 0.00 63 1006.2
20260508111603 7 237 12.9 24.1 0.00 0.00 0.00 63 1006.2
20260508111503 7 235 17.7 24.1 0.00 0.00 0.00 63 1006.2
20260508111303 7 232 12.9 22.5 0.00 0.00 0.00 63 1006.3
20260508111205 7 238 11.3 24.1 0.00 0.00 0.00 63 1006.0
20260508111105 7 231 9.7 24.1 0.00 0.00 0.00 63 1006.2
20260508111003 7 235 8.0 27.4 0.00 0.00 0.00 63 1006.3
20260508110904 7 242 8.0 27.4 0.00 0.00 0.00 63 1006.4
20260508110805 7 239 12.9 27.4 0.00 0.00 0.00 63 1006.1
20260508110704 7 233 12.9 27.4 0.00 0.00 0.00 63 1006.2
20260508110604 7 234 12.9 27.4 0.00 0.00 0.00 63 1006.1
20260508110503 7 237 20.9 27.4 0.00 0.00 0.00 63 1006.1
20260508110405 7 232 12.9 27.4 0.00 0.00 0.00 63 1005.9
20260508110303 7 228 17.7 27.4 0.00 0.00 0.00 63 1006.0
20260508110203 7 228 12.9 27.4 0.00 0.00 0.00 63 1006.1
20260508110007 7 230 11.3 27.4 0.00 0.00 0.00 63 1005.8
20260508105909 7 236 11.3 27.4 0.00 0.00 0.00 63 1005.9
20260508105816 7 242 12.9 25.7 0.00 0.00 0.00 63 1005.8
20260508105703 7 258 12.9 25.7 0.00 0.00 0.00 63 1006.0
20260508105503 7 251 14.5 25.7 0.00 0.00 0.00 63 1006.0
20260508105405 7 246 12.9 24.1 0.00 0.00 0.00 63 1005.7
20260508105306 7 241 16.1 24.1 0.00 0.00 0.00 63 1006.0
20260508105203 7 233 14.5 24.1 0.00 0.00 0.00 63 1005.8
20260508105103 7 237 9.7 24.1 0.00 0.00 0.00 63 1006.2
20260508105003 7 246 11.3 24.1 0.00 0.00 0.00 64 1006.0
20260508104905 7 248 9.7 24.1 0.00 0.00 0.00 64 1005.9
20260508104703 7 238 6.4 25.7 0.00 0.00 0.00 63 1006.1
20260508104603 7 242 12.9 27.4 0.00 0.00 0.00 63 1005.9
20260508104505 7 240 12.9 27.4 0.00 0.00 0.00 63 1005.8
20260508104403 7 246 8.0 27.4 0.00 0.00 0.00 63 1005.9
20260508104305 7 249 16.1 27.4 0.00 0.00 0.00 63 1005.8
20260508104203 7 251 17.7 27.4 0.00 0.00 0.00 63 1005.8
20260508104105 7 244 11.3 22.5 0.00 0.00 0.00 63 1005.8
20260508104004 7 241 6.4 22.5 0.00 0.00 0.00 63 1005.9
20260508103903 7 233 11.3 22.5 0.00 0.00 0.00 63 1005.8
20260508103804 7 232 8.0 24.1 0.00 0.00 0.00 63 1005.6
20260508103704 7 239 6.4 24.1 0.00 0.00 0.00 63 1005.7
20260508103604 7 240 11.3 24.1 0.00 0.00 0.00 63 1005.5
20260508103504 7 252 6.4 24.1 0.00 0.00 0.00 63 1005.6
20260508103417 7 255 11.3 27.4 0.00 0.00 0.00 63 1005.7
20260508103403 7 257 9.7 27.4 0.00 0.00 0.00 63 1005.8
20260508103315 7 261 17.7 27.4 0.00 0.00 0.00 63 1005.6
20260508103305 7 260 17.7 27.4 0.00 0.00 0.00 63 1005.6
20260508103004 7 250 12.9 27.4 0.00 0.00 0.00 63 1005.5
20260508102903 7 244 12.9 22.5 0.00 0.00 0.00 63 1005.9
20260508102807 7 236 9.7 22.5 0.00 0.00 0.00 63 1005.5
20260508102704 7 229 12.9 22.5 0.00 0.00 0.00 63 1005.6
20260508102616 7 229 11.3 20.9 0.00 0.00 0.00 64 1005.7
20260508102603 7 229 8.0 20.9 0.00 0.00 0.00 64 1005.6
20260508102503 7 232 8.0 20.9 0.00 0.00 0.00 64 1005.6
20260508102306 7 233 9.7 20.9 0.00 0.00 0.00 64 1005.4
20260508102206 7 238 6.4 20.9 0.00 0.00 0.00 64 1005.5
20260508102114 7 239 6.4 20.9 0.00 0.00 0.00 64 1005.6
20260508102103 7 240 6.4 20.9 0.00 0.00 0.00 64 1005.6
20260508102017 7 245 6.4 20.9 0.00 0.00 0.00 64 1005.4
20260508102004 7 248 6.4 20.9 0.00 0.00 0.00 64 1005.4
20260508101814 7 251 11.3 17.7 0.00 0.00 0.00 63 1005.4
20260508101703 7 247 12.9 17.7 0.00 0.00 0.00 63 1005.3
20260508101617 7 240 11.3 17.7 0.00 0.00 0.00 64 1005.4
20260508101504 7 227 9.7 17.7 0.00 0.00 0.00 64 1005.5
20260508101305 7 221 11.3 24.1 0.00 0.00 0.00 64 1005.7
20260508101205 7 217 8.0 24.1 0.00 0.00 0.00 64 1005.5
20260508101103 7 223 8.0 24.1 0.00 0.00 0.00 64 1005.3
20260508101003 7 230 11.3 24.1 0.00 0.00 0.00 64 1005.4
20260508100805 7 240 12.9 22.5 0.00 0.00 0.00 64 1005.5
20260508100703 7 243 8.0 22.5 0.00 0.00 0.00 64 1005.5
20260508100618 7 246 6.4 22.5 0.00 0.00 0.00 64 1005.6
20260508100603 7 249 11.3 22.5 0.00 0.00 0.00 64 1005.5
20260508100503 7 249 12.9 22.5 0.00 0.00 0.00 63 1005.4
20260508100415 7 244 12.9 24.1 0.00 0.00 0.00 63 1005.4
20260508100306 7 247 14.5 24.1 0.00 0.00 0.00 63 1005.4
20260508100103 7 244 9.7 24.1 0.00 0.00 0.00 63 1005.3
20260508100004 7 244 9.7 24.1 0.00 0.00 0.00 64 1005.4
20260508095903 7 241 11.3 24.1 0.00 0.00 0.00 64 1005.4
20260508095816 7 241 11.3 24.1 0.00 0.00 0.00 64 1005.4
20260508095806 7 240 6.4 22.5 0.00 0.00 0.00 64 1005.3
20260508095503 7 238 6.4 24.1 0.00 0.00 0.00 64 1005.4
20260508095403 7 236 14.5 24.1 0.00 0.00 0.00 64 1005.3
20260508095204 7 223 12.9 24.1 0.00 0.00 0.00 64 1005.1
20260508095104 7 223 12.9 24.1 0.00 0.00 0.00 64 1005.3
20260508095015 7 225 12.9 22.5 0.00 0.00 0.00 64 1005.3
20260508095004 7 223 11.3 22.5 0.00 0.00 0.00 64 1005.2
20260508094918 7 223 12.9 22.5 0.00 0.00 0.00 64 1005.5
20260508094907 7 225 12.9 22.5 0.00 0.00 0.00 64 1005.5
20260508094716 7 239 12.9 22.5 0.00 0.00 0.00 64 1005.4
20260508094619 7 240 12.9 22.5 0.00 0.00 0.00 64 1005.4
20260508094604 7 243 11.3 20.9 0.00 0.00 0.00 65 1005.4
20260508094513 7 247 8.0 20.9 0.00 0.00 0.00 65 1005.3
20260508094203 7 248 9.7 22.5 0.00 0.00 0.00 65 1005.2
20260508094105 7 251 12.9 22.5 0.00 0.00 0.00 65 1005.3
20260508094009 7 250 12.9 24.1 0.00 0.00 0.00 65 1005.4
20260508093907 7 245 6.4 24.1 0.00 0.00 0.00 65 1005.2
20260508093703 7 250 14.5 24.1 0.00 0.00 0.00 65 1005.1
20260508093603 7 255 14.5 25.7 0.00 0.00 0.00 65 1005.2
20260508093504 7 257 14.5 25.7 0.00 0.00 0.00 66 1005.2
20260508093404 7 250 6.4 27.4 0.00 0.00 0.00 66 1005.2
20260508093305 7 245 12.9 27.4 0.00 0.00 0.00 66 1005.4
20260508093203 7 237 11.3 27.4 0.00 0.00 0.00 66 1005.1
20260508093103 7 235 16.1 27.4 0.00 0.00 0.00 66 1005.2
20260508093009 7 226 12.9 27.4 0.00 0.00 0.00 66 1005.2
20260508092904 7 240 11.3 22.5 0.00 0.00 0.00 66 1005.3
20260508092804 7 246 11.3 22.5 0.00 0.00 0.00 66 1005.3
20260508092703 7 253 9.7 22.5 0.00 0.00 0.00 66 1005.2
20260508092603 7 253 11.3 22.5 0.00 0.00 0.00 66 1005.4
20260508092505 7 253 11.3 22.5 0.00 0.00 0.00 66 1005.4
20260508092404 7 245 14.5 25.7 0.00 0.00 0.00 66 1005.2
20260508092312 7 240 8.0 25.7 0.00 0.00 0.00 66 1005.5
20260508092203 7 242 8.0 25.7 0.00 0.00 0.00 66 1005.3
20260508092104 7 240 11.3 25.7 0.00 0.00 0.00 65 1005.2
20260508092005 7 240 11.3 25.7 0.00 0.00 0.00 65 1005.2
20260508091903 7 226 12.9 25.7 0.00 0.00 0.00 65 1005.2
20260508091805 7 233 14.5 24.1 0.00 0.00 0.00 65 1005.1
20260508091605 7 225 6.4 24.1 0.00 0.00 0.00 65 1005.1
20260508091504 7 215 12.9 24.1 0.00 0.00 0.00 65 1005.1
20260508091403 7 228 12.9 24.1 0.00 0.00 0.00 65 1005.2
20260508091313 7 227 12.9 24.1 0.00 0.00 0.00 65 1005.1
20260508091303 7 225 12.9 24.1 0.00 0.00 0.00 65 1005.1
20260508091205 7 212 16.1 32.2 0.00 0.00 0.00 65 1005.1
20260508091003 7 229 9.7 32.2 0.00 0.00 0.00 65 1005.2
20260508090904 7 240 8.0 32.2 0.00 0.00 0.00 65 1005.0
20260508090705 7 249 14.5 32.2 0.00 0.00 0.00 65 1005.0
20260508090603 7 252 16.1 27.4 0.00 0.00 0.00 65 1004.9
20260508090503 7 254 16.1 27.4 0.00 0.00 0.00 65 1005.1
20260508090403 7 250 17.7 25.7 0.00 0.00 0.00 65 1005.1
20260508090303 7 246 9.7 25.7 0.00 0.00 0.00 65 1005.0
20260508090205 7 247 14.5 25.7 0.00 0.00 0.00 65 1005.0
20260508090004 7 252 12.9 24.1 0.00 0.00 0.00 66 1004.9
20260508085904 7 249 11.3 24.1 0.00 0.00 0.00 66 1005.0
20260508085804 7 251 6.4 24.1 0.00 0.00 0.00 66 1005.0
20260508085704 7 250 9.7 24.1 0.00 0.00 0.00 66 1005.0
20260508085603 7 244 9.7 24.1 0.00 0.00 0.00 66 1004.8
20260508085504 7 233 14.5 24.1 0.00 0.00 0.00 66 1004.9
20260508085404 7 232 9.7 24.1 0.00 0.00 0.00 66 1005.0
20260508085306 7 234 12.9 24.1 0.00 0.00 0.00 66 1004.9
20260508085210 7 233 11.3 29.0 0.00 0.00 0.00 66 1004.9
20260508085103 7 227 12.9 29.0 0.00 0.00 0.00 66 1004.9
20260508085004 7 233 14.5 29.0 0.00 0.00 0.00 67 1004.9
20260508084905 7 232 6.4 29.0 0.00 0.00 0.00 67 1004.6
20260508084805 7 229 9.7 29.0 0.00 0.00 0.00 67 1004.9
20260508084704 7 232 17.7 29.0 0.00 0.00 0.00 67 1005.0
20260508084603 7 230 11.3 29.0 0.00 0.00 0.00 67 1004.7
20260508084504 7 233 9.7 29.0 0.00 0.00 0.00 67 1004.8
20260508084417 7 230 11.3 29.0 0.00 0.00 0.00 67 1004.5
20260508084404 7 229 11.3 29.0 0.00 0.00 0.00 67 1004.5
20260508084303 7 232 12.9 29.0 0.00 0.00 0.00 67 1004.8
20260508084103 7 240 9.7 22.5 0.00 0.00 0.00 67 1004.6
20260508084003 7 240 6.4 22.5 0.00 0.00 0.00 67 1004.6
20260508083905 7 239 12.9 22.5 0.00 0.00 0.00 67 1004.5
20260508083803 7 238 9.7 17.7 0.00 0.00 0.00 67 1004.8
20260508083603 7 238 8.0 24.1 0.00 0.00 0.00 67 1004.6
20260508083503 7 240 9.7 24.1 0.00 0.00 0.00 67 1004.7
20260508083404 7 242 11.3 24.1 0.00 0.00 0.00 67 1004.6
20260508083303 7 241 6.4 24.1 0.00 0.00 0.00 67 1004.7
20260508083204 7 243 11.3 24.1 0.00 0.00 0.00 67 1004.5
20260508083103 7 251 12.9 24.1 0.00 0.00 0.00 67 1004.6
20260508083018 7 251 12.9 24.1 0.00 0.00 0.00 67 1004.5
20260508083004 7 251 9.7 24.1 0.00 0.00 0.00 67 1004.6
20260508082904 7 255 17.7 24.1 0.00 0.00 0.00 67 1004.7
20260508082705 7 257 14.5 22.5 0.00 0.00 0.00 67 1004.5
20260508082603 7 247 6.4 22.5 0.00 0.00 0.00 67 1004.5
20260508082503 7 244 9.7 22.5 0.00 0.00 0.00 67 1004.4
20260508082419 7 242 9.7 22.5 0.00 0.00 0.00 67 1004.5
20260508082403 7 241 9.7 22.5 0.00 0.00 0.00 67 1004.5
20260508082306 7 239 9.7 22.5 0.00 0.00 0.00 67 1004.7
20260508082115 7 232 9.7 22.5 0.00 0.00 0.00 67 1004.7
20260508082103 7 233 9.7 22.5 0.00 0.00 0.00 67 1004.7
20260508082005 7 236 12.9 22.5 0.00 0.00 0.00 67 1004.6
20260508081803 7 237 12.9 17.7 0.00 0.00 0.00 67 1004.4
20260508081703 7 240 6.4 17.7 0.00 0.00 0.00 67 1004.6
20260508081604 7 237 8.0 17.7 0.00 0.00 0.00 67 1004.4
20260508081504 7 240 8.0 17.7 0.00 0.00 0.00 67 1004.6
20260508081415 7 248 8.0 20.9 0.00 0.00 0.00 67 1004.6
20260508081404 7 247 11.3 20.9 0.00 0.00 0.00 67 1004.5
20260508081303 7 247 12.9 22.5 0.00 0.00 0.00 67 1004.6
20260508081217 7 252 12.9 27.4 0.00 0.00 0.00 67 1004.5
20260508081106 7 258 11.3 27.4 0.00 0.03 0.00 68 1004.5
20260508080803 7 260 12.9 27.4 0.00 0.03 0.00 68 1004.7
20260508080703 7 254 14.5 27.4 0.00 0.03 0.00 68 1004.7
20260508080605 7 252 12.9 27.4 0.00 0.03 0.00 68 1004.6
20260508080504 7 240 12.9 24.1 0.00 0.03 0.00 68 1004.6
20260508080403 7 234 14.5 27.4 0.00 0.03 0.00 68 1004.6
20260508080303 7 237 12.9 27.4 0.00 0.03 0.00 69 1004.5
20260508080218 7 238 9.7 27.4 0.00 0.05 0.00 69 1004.4
20260508080203 7 240 16.1 27.4 0.00 0.05 0.00 69 1004.8
20260508080105 7 241 11.3 27.4 0.00 0.05 0.00 69 1004.7
20260508080015 7 244 9.7 27.4 0.00 0.05 0.00 68 1004.4
20260508075904 7 251 16.1 27.4 0.00 0.05 0.00 69 1004.4
20260508075705 7 257 6.4 25.7 0.00 0.05 0.00 69 1004.4
20260508075604 7 250 9.7 25.7 0.00 0.05 0.00 69 1004.3
20260508075404 7 262 9.7 17.7 0.00 0.05 0.00 69 1004.4
20260508075308 7 253 8.0 17.7 0.00 0.05 0.00 69 1004.6
20260508075203 7 249 9.7 17.7 0.00 0.05 0.00 69 1004.4
20260508075104 7 253 6.4 20.9 0.00 0.05 0.00 69 1004.6
20260508075005 7 254 9.7 20.9 0.00 0.05 0.00 69 1004.7
20260508074904 8 253 11.3 20.9 0.00 0.05 0.00 69 1004.6
20260508074819 8 252 11.3 20.9 0.00 0.05 0.00 69 1004.8
20260508074804 8 253 11.3 20.9 0.00 0.05 0.00 69 1004.8
20260508074704 8 252 6.4 20.9 0.00 0.05 0.00 69 1004.9
20260508074503 8 261 11.3 20.9 0.00 0.05 0.00 69 1005.1
20260508074418 8 258 6.4 22.5 0.00 0.05 0.00 69 1004.6
20260508074404 8 259 6.4 22.5 0.00 0.05 0.00 69 1004.6
20260508074303 8 261 6.4 22.5 0.00 0.05 0.00 69 1004.8
20260508074103 8 248 9.7 24.1 0.00 0.05 0.00 69 1004.6
20260508074003 8 240 8.0 24.1 0.00 0.05 0.00 69 1004.8
20260508073903 8 233 12.9 24.1 0.00 0.05 0.00 69 1004.7
20260508073803 8 229 12.9 24.1 0.00 0.05 0.00 69 1004.6
20260508073703 8 235 12.9 20.9 0.00 0.05 0.00 69 1004.9
20260508073603 8 239 8.0 17.7 0.00 0.05 0.00 69 1004.9
20260508073503 8 237 9.7 22.5 0.00 0.05 0.00 69 1004.9
20260508073403 8 239 9.7 22.5 0.00 0.05 0.00 69 1004.8
20260508073303 8 243 9.7 22.5 0.00 0.05 0.00 69 1004.8
20260508073204 8 242 9.7 25.7 0.00 0.05 0.00 69 1004.9
20260508073104 8 241 11.3 25.7 0.00 0.05 0.00 69 1005.0
20260508073003 8 249 6.4 25.7 0.00 0.05 0.00 69 1004.7
20260508072905 8 248 12.9 25.7 0.00 0.05 0.00 68 1005.0
20260508072803 8 246 12.9 25.7 0.00 0.05 0.00 68 1004.8
20260508072703 8 241 14.5 25.7 0.00 0.05 0.00 68 1004.9
20260508072505 8 224 14.5 25.7 0.00 0.05 0.00 68 1004.8
20260508072403 8 225 12.9 25.7 0.00 0.05 0.00 68 1004.8
20260508072307 8 229 6.4 17.7 0.00 0.05 0.00 68 1004.7
20260508072203 8 233 11.3 22.5 0.00 0.05 0.00 68 1004.9
20260508072004 8 242 12.9 22.5 0.00 0.05 0.00 68 1005.1
20260508071905 8 244 9.7 22.5 0.00 0.05 0.00 68 1004.9
20260508071803 8 236 9.7 22.5 0.00 0.05 0.00 67 1005.0
20260508071603 8 236 6.4 20.9 0.00 0.05 0.00 67 1005.0
20260508071503 8 238 8.0 20.9 0.00 0.05 0.00 67 1004.9
20260508071416 8 239 12.9 20.9 0.00 0.05 0.00 67 1004.9
20260508071405 8 238 14.5 20.9 0.00 0.05 0.00 67 1004.8
20260508071303 8 241 9.7 24.1 0.00 0.05 0.00 67 1004.8
20260508071105 8 244 11.3 24.1 0.00 0.05 0.00 67 1004.8
20260508071005 8 245 12.9 24.1 0.00 0.05 0.00 67 1005.0
20260508070904 8 246 12.9 24.1 0.00 0.05 0.00 67 1004.9
20260508070804 8 247 12.9 24.1 0.00 0.05 0.00 67 1005.1
20260508070705 8 244 12.9 20.9 0.00 0.05 0.00 67 1005.2
20260508070605 8 243 8.0 20.9 0.00 0.05 0.00 68 1005.0
20260508070504 8 240 9.7 20.9 0.00 0.05 0.00 68 1005.3
20260508070403 8 232 9.7 20.9 0.00 0.05 0.00 68 1005.1
20260508070304 8 234 9.7 20.9 0.00 0.05 0.00 68 1005.1
20260508070204 8 241 12.9 20.9 0.00 0.05 0.00 68 1005.3
20260508070117 8 237 9.7 17.7 0.00 0.05 0.00 68 1005.5
20260508070104 8 235 9.7 17.7 0.00 0.05 0.00 68 1005.5
20260508070004 8 237 8.0 17.7 0.00 0.05 0.00 68 1005.3
20260508065804 8 249 9.7 17.7 0.00 0.05 0.00 68 1005.0
20260508065704 8 245 11.3 17.7 0.00 0.05 0.00 68 1005.1
20260508065504 8 251 14.5 17.7 0.00 0.05 0.00 69 1005.0
20260508065404 8 243 8.0 17.7 0.00 0.05 0.00 70 1005.0
20260508065306 8 233 6.4 17.7 0.00 0.05 0.00 70 1005.2
20260508065215 8 230 6.4 17.7 0.00 0.05 0.00 70 1005.2
20260508065203 8 229 6.4 17.7 0.00 0.05 0.00 70 1005.2
20260508065103 8 230 9.7 17.7 0.00 0.05 0.00 70 1005.0
20260508064903 8 246 6.4 17.7 0.00 0.05 0.00 70 1005.3
20260508064805 8 246 11.3 17.7 0.00 0.05 0.00 70 1005.4
20260508064703 8 246 8.0 17.7 0.00 0.05 0.00 70 1005.4
20260508064603 8 244 9.7 17.7 0.00 0.05 0.00 70 1005.1
20260508064520 8 236 9.7 17.7 0.00 0.05 0.00 70 1005.3
20260508064407 8 210 9.7 17.7 0.00 0.05 0.00 70 1005.3
20260508064216 8 204 6.4 17.7 0.00 0.05 0.00 71 1005.3
20260508064203 8 204 6.4 17.7 0.00 0.05 0.00 71 1005.2
20260508064104 8 207 4.8 22.5 0.00 0.05 0.00 71 1005.2
20260508063903 8 231 11.3 22.5 0.00 0.05 0.00 71 1005.3
20260508063803 8 239 9.7 24.1 0.00 0.05 0.00 71 1005.4
20260508063703 8 244 9.7 24.1 0.00 0.05 0.00 71 1005.2
20260508063603 8 248 12.9 24.1 0.00 0.05 0.00 71 1005.4
20260508063503 8 251 9.7 24.1 0.00 0.05 0.00 71 1005.2
20260508063403 8 246 12.9 24.1 0.00 0.05 0.00 71 1005.2
20260508063304 8 244 12.9 24.1 0.00 0.05 0.00 71 1005.3
20260508063205 8 247 12.9 24.1 0.00 0.05 0.00 71 1005.2
20260508063104 8 254 6.4 12.9 0.00 0.05 0.00 71 1005.3
20260508063004 8 257 4.8 17.7 0.00 0.05 0.00 71 1005.3
20260508062903 8 262 8.0 17.7 0.00 0.05 0.00 71 1005.2
20260508062805 8 259 9.7 17.7 0.00 0.05 0.00 71 1005.1
20260508062706 8 260 6.4 17.7 0.00 0.05 0.00 71 1005.2
20260508062605 9 250 8.0 17.7 0.00 0.05 0.00 71 1005.5
20260508062504 9 246 11.3 17.7 0.00 0.05 0.00 71 1005.3
20260508062403 9 243 8.0 17.7 0.00 0.05 0.00 71 1005.3
20260508062319 9 246 11.3 17.7 0.00 0.05 0.00 71 1005.3
20260508062306 9 248 11.3 17.7 0.00 0.05 0.00 71 1005.3
20260508062217 9 246 12.9 17.7 0.00 0.05 0.00 71 1005.4
20260508062204 9 246 9.7 17.7 0.00 0.05 0.00 71 1005.4
20260508061909 9 242 11.3 17.7 0.00 0.05 0.00 71 1005.4
20260508061804 9 233 6.4 14.5 0.00 0.05 0.00 71 1005.2
20260508061704 9 235 6.4 14.5 0.00 0.05 0.00 71 1005.5
20260508061619 9 235 6.4 14.5 0.00 0.05 0.00 71 1005.4
20260508061604 9 234 6.4 14.5 0.00 0.05 0.00 71 1005.4
20260508061504 9 234 6.4 17.7 0.00 0.05 0.00 71 1005.1
20260508061204 9 257 8.0 17.7 0.00 0.05 0.00 71 1005.5
20260508061104 9 261 8.0 17.7 0.00 0.05 0.00 71 1005.4
20260508061004 9 260 6.4 17.7 0.00 0.05 0.00 72 1005.7
20260508060903 9 259 4.8 17.7 0.00 0.05 0.00 72 1005.4
20260508060804 9 260 4.8 17.7 0.00 0.05 0.00 72 1005.3
20260508060703 9 254 11.3 17.7 0.00 0.05 0.00 72 1005.6
20260508060615 9 245 11.3 17.7 0.00 0.05 0.00 72 1005.6
20260508060604 9 243 6.4 14.5 0.00 0.05 0.00 72 1005.5
20260508060504 9 252 6.4 14.5 0.00 0.05 0.00 72 1005.7
20260508060303 9 250 11.3 17.7 0.00 0.05 0.00 72 1005.6
20260508060214 9 250 6.4 17.7 0.00 0.05 0.00 72 1005.4
20260508060204 9 252 6.4 17.7 0.00 0.05 0.00 72 1005.6
20260508060103 9 255 8.0 17.7 0.00 0.05 0.00 72 1005.4
20260508055904 9 245 6.4 17.7 0.00 0.05 0.00 72 1005.3
20260508055805 9 249 11.3 17.7 0.00 0.05 0.00 72 1005.5
20260508055703 9 248 11.3 17.7 0.00 0.05 0.00 72 1005.5
20260508055603 9 251 6.4 17.7 0.00 0.05 0.00 72 1005.4
20260508055504 9 254 6.4 17.7 0.00 0.05 0.00 72 1005.5
20260508055405 9 251 9.7 17.7 0.00 0.05 0.00 72 1005.5
20260508055306 9 251 11.3 17.7 0.00 0.05 0.00 71 1005.4
20260508055203 10 253 12.9 17.7 0.00 0.05 0.00 71 1005.2
20260508055104 10 253 9.7 17.7 0.00 0.05 0.00 71 1005.5
20260508055003 10 251 12.9 17.7 0.00 0.05 0.00 71 1005.2
20260508054904 10 260 8.0 17.7 0.00 0.05 0.00 72 1005.4
20260508054804 10 257 6.4 17.7 0.00 0.05 0.00 71 1005.5
20260508054704 10 256 8.0 17.7 0.00 0.05 0.00 71 1005.3
20260508054604 10 250 8.0 17.7 0.00 0.05 0.00 72 1005.2
20260508054503 10 250 8.0 17.7 0.00 0.05 0.00 72 1005.5
20260508054404 10 244 6.4 17.7 0.00 0.05 0.00 72 1005.3
20260508054303 10 242 11.3 20.9 0.00 0.05 0.00 71 1005.6
20260508054205 10 233 6.4 20.9 0.00 0.05 0.00 72 1005.4
20260508054003 10 229 9.7 20.9 0.00 0.05 0.00 71 1005.4
20260508053903 10 228 8.0 20.9 0.00 0.05 0.00 71 1005.3
20260508053804 10 226 8.0 20.9 0.00 0.05 0.00 71 1005.2
20260508053710 10 235 8.0 20.9 0.00 0.05 0.00 71 1005.1
20260508053605 10 237 11.3 20.9 0.00 0.05 0.00 71 1005.3
20260508053503 10 238 9.7 20.9 0.00 0.10 0.00 71 1005.1
20260508053415 10 240 9.7 20.9 0.00 0.13 0.00 71 1005.3
20260508053403 10 240 8.0 20.9 0.00 0.13 0.00 71 1005.3
20260508053314 10 240 14.5 20.9 0.00 0.18 0.00 71 1005.1
20260508053305 10 237 14.5 20.9 0.00 0.18 0.00 71 1005.1
20260508053217 10 235 11.3 22.5 0.00 0.20 0.00 71 1005.2
20260508052903 10 234 6.4 25.7 0.00 0.43 0.00 72 1005.2
20260508052803 10 232 8.0 25.7 0.00 0.43 0.00 72 1005.3
20260508052703 10 229 12.9 25.7 0.00 0.43 0.00 72 1005.2
20260508052603 10 229 8.0 20.9 0.00 0.43 0.00 72 1005.4
20260508052517 10 230 11.3 25.7 0.00 0.43 0.00 72 1005.0
20260508052403 10 234 8.0 25.7 0.00 0.43 0.00 72 1005.0
20260508052204 10 237 9.7 25.7 0.00 0.43 0.00 72 1005.2
20260508052105 10 242 9.7 25.7 0.00 0.43 0.00 72 1004.9
20260508052003 10 245 12.9 25.7 0.00 0.43 0.00 72 1005.2
20260508051903 10 245 8.0 20.9 0.00 0.43 0.00 72 1005.4
20260508051823 10 245 8.0 20.9 0.00 0.46 0.00 72 1005.2
20260508051804 10 248 11.3 20.9 0.00 0.46 0.00 72 1004.9
20260508051705 10 259 8.0 20.9 0.00 0.46 0.00 72 1005.3
20260508051505 10 258 8.0 20.9 0.00 0.48 0.00 72 1005.1
20260508051404 10 253 6.4 17.7 0.00 0.48 0.00 72 1005.0
20260508051315 10 254 8.0 17.7 0.00 0.48 0.00 72 1005.1
20260508051303 10 250 8.0 17.7 0.00 0.48 0.00 72 1005.1
20260508051204 10 245 6.4 17.7 0.00 0.48 0.00 72 1004.9
20260508051004 10 234 6.4 17.7 0.00 0.48 0.00 72 1005.1
20260508050905 10 236 6.4 17.7 0.00 0.48 0.00 72 1005.0
20260508050805 10 248 12.9 17.7 0.00 0.48 0.00 72 1004.9
20260508050705 10 246 11.3 17.7 0.00 0.48 0.00 72 1004.9
20260508050603 10 247 8.0 14.5 0.00 0.48 0.00 72 1004.9
20260508050504 10 261 8.0 17.7 0.00 0.48 0.00 72 1004.8
20260508050403 10 263 8.0 17.7 0.00 0.48 0.00 72 1004.7
20260508050303 10 254 8.0 17.7 0.00 0.48 0.00 72 1004.7
20260508050204 10 249 4.8 17.7 0.00 0.48 0.00 72 1005.0
20260508050113 10 245 6.4 17.7 0.00 0.48 0.00 72 1004.8
20260508050104 10 240 6.4 17.7 0.00 0.48 0.00 72 1004.8
20260508050005 10 236 8.0 17.7 0.00 0.48 0.00 72 1004.9
20260508045704 10 242 12.9 22.5 0.00 0.48 0.00 71 1004.9
20260508045605 10 237 9.7 22.5 0.00 0.48 0.00 71 1004.8
20260508045505 10 237 11.3 22.5 0.00 0.48 0.00 71 1004.9
20260508045403 10 233 9.7 20.9 0.00 0.48 0.00 71 1004.9
20260508045317 10 226 8.0 20.9 0.00 0.48 0.00 72 1005.2
20260508045306 10 225 8.0 20.9 0.00 0.48 0.00 72 1005.2
20260508045216 10 228 9.7 20.9 0.00 0.48 0.00 72 1005.0
20260508045203 10 231 9.7 20.9 0.00 0.48 0.00 72 1005.0
20260508044905 10 246 8.0 17.7 0.00 0.48 0.00 72 1004.8
20260508044803 10 250 8.0 17.7 0.00 0.48 0.00 72 1004.9
20260508044706 10 252 9.7 17.7 0.00 0.48 0.00 72 1004.9
20260508044603 10 248 6.4 14.5 0.00 0.48 0.00 72 1005.0
20260508044504 10 246 8.0 14.5 0.00 0.48 0.00 72 1004.9
20260508044404 10 242 8.0 14.5 0.00 0.48 0.00 72 1004.9
20260508044304 10 244 6.4 17.7 0.00 0.48 0.00 72 1005.0
20260508044203 10 240 11.3 17.7 0.00 0.48 0.00 72 1005.1
20260508044105 10 237 8.0 17.7 0.00 0.48 0.00 72 1005.1
20260508044005 10 236 8.0 17.7 0.00 0.48 0.00 72 1005.0
20260508043903 10 234 6.4 17.7 0.00 0.48 0.00 72 1005.3
20260508043803 10 241 8.0 20.9 0.00 0.48 0.00 72 1005.2
20260508043704 10 241 8.0 20.9 0.00 0.48 0.00 72 1005.0
20260508043605 10 243 6.4 20.9 0.00 0.48 0.00 72 1005.1
20260508043404 10 243 9.7 20.9 0.00 0.51 0.00 72 1005.1
20260508043303 10 232 9.7 17.7 0.00 0.51 0.00 72 1005.2
20260508043203 10 231 8.0 17.7 0.00 0.51 0.00 72 1004.9
20260508043105 10 235 9.7 17.7 0.00 0.56 0.00 72 1004.8
20260508043015 10 246 11.3 17.7 0.00 0.61 0.00 72 1004.9
20260508042903 10 248 9.7 20.9 0.00 0.61 0.00 72 1005.1
20260508042706 10 251 8.0 20.9 0.00 0.61 0.00 71 1005.1
20260508042603 10 242 11.3 20.9 0.00 0.61 0.00 71 1005.1
20260508042504 10 231 11.3 20.9 0.00 0.61 0.00 71 1005.2
20260508042404 10 228 8.0 17.7 0.00 0.61 0.00 71 1004.9
20260508042307 10 229 8.0 17.7 0.00 0.61 0.00 71 1005.1
20260508042204 10 239 6.4 22.5 0.00 0.61 0.00 71 1005.0
20260508042105 10 246 6.4 22.5 0.00 0.61 0.00 71 1005.0
20260508042003 10 244 8.0 22.5 0.00 0.61 0.00 72 1004.9
20260508041904 10 243 8.0 22.5 0.00 0.69 0.00 71 1004.9
20260508041804 11 241 8.0 22.5 0.00 0.76 0.00 71 1004.9
20260508041705 11 232 6.4 22.5 0.00 0.81 0.00 71 1004.8
20260508041604 11 227 9.7 22.5 0.00 0.84 0.00 71 1004.9
20260508041505 11 229 8.0 22.5 0.00 0.94 0.00 71 1004.8
20260508041404 11 233 8.0 22.5 0.00 0.99 0.00 71 1005.0
20260508041304 11 233 9.7 22.5 0.00 1.02 0.00 71 1005.0
20260508041206 11 225 12.9 22.5 0.00 1.09 0.00 71 1005.0
20260508040907 11 240 12.9 25.7 0.00 1.19 0.00 71 1005.1
20260508040705 11 253 6.4 25.7 0.00 1.32 0.00 71 1005.0
20260508040604 11 253 9.7 25.7 0.00 1.35 0.00 71 1005.2
20260508040504 11 261 12.9 25.7 0.00 1.42 0.00 71 1004.9
20260508040403 11 264 9.7 17.7 0.00 1.42 0.00 71 1005.1
20260508040303 11 255 9.7 17.7 0.00 1.45 0.00 71 1005.2
20260508040205 11 250 8.0 17.7 0.00 1.45 0.00 71 1005.2
20260508040114 11 253 6.4 17.7 0.00 1.47 0.00 72 1005.0
20260508040004 11 240 11.3 17.7 0.00 1.47 0.00 72 1004.9
20260508035803 11 242 6.4 17.7 0.00 1.47 0.00 72 1005.1
20260508035719 11 246 6.4 17.7 0.00 1.50 0.00 72 1004.9
20260508035705 11 247 6.4 17.7 0.00 1.50 0.00 72 1004.9
20260508035603 11 252 9.7 17.7 0.00 1.52 0.00 72 1005.3
20260508035403 11 260 6.4 17.7 0.00 1.55 0.00 72 1005.1
20260508035306 11 256 9.7 17.7 0.00 1.60 0.00 72 1004.9
20260508035206 11 244 9.7 12.9 0.00 1.63 0.00 72 1005.1
20260508035103 11 247 4.8 12.9 0.00 1.68 0.00 72 1004.9
20260508035003 11 252 6.4 12.9 0.00 1.68 0.00 72 1005.1
20260508034903 11 247 6.4 12.9 0.00 1.70 0.00 72 1005.0
20260508034804 11 255 8.0 17.7 0.00 1.70 0.00 72 1004.8
20260508034704 11 258 6.4 17.7 0.00 1.70 0.00 72 1005.0
20260508034603 11 257 6.4 17.7 0.00 1.70 0.00 72 1004.7
20260508034503 11 264 6.4 17.7 0.00 1.75 0.00 71 1004.8
20260508034415 11 265 6.4 17.7 0.00 1.75 0.00 71 1004.7
20260508034303 11 261 9.7 17.7 0.00 1.85 0.00 71 1004.8
20260508034103 11 254 12.9 20.9 0.00 1.93 0.00 71 1004.6
20260508034005 11 244 6.4 20.9 0.00 1.93 0.00 72 1004.8
20260508033904 11 246 8.0 20.9 0.00 1.98 0.00 71 1004.9
20260508033805 11 242 11.3 20.9 0.00 2.01 0.00 71 1004.7
20260508033703 11 242 9.7 17.7 0.00 2.03 0.00 72 1004.6
20260508033605 11 235 6.4 17.7 0.00 2.03 0.00 72 1004.6
20260508033503 11 236 8.0 17.7 0.00 2.06 0.00 72 1004.7
20260508033403 11 223 11.3 17.7 0.00 2.06 0.00 72 1004.8
20260508033305 11 229 6.4 14.5 0.00 2.06 0.00 72 1004.8
20260508033205 11 230 6.4 14.5 0.00 2.06 0.00 72 1004.7
20260508033103 11 224 8.0 17.7 0.00 2.06 0.00 72 1004.6
20260508033016 11 220 9.7 17.7 0.00 2.06 0.00 72 1004.9
20260508033004 11 218 9.7 17.7 0.00 2.06 0.00 72 1004.6
20260508032903 11 229 6.4 17.7 0.00 2.06 0.00 72 1004.8
20260508032705 11 232 11.3 17.7 0.00 2.06 0.00 72 1004.7
20260508032605 11 248 6.4 17.7 0.00 2.06 0.00 72 1004.8
20260508032506 11 250 6.4 17.7 0.00 2.06 0.00 72 1004.7
20260508032417 11 253 6.4 17.7 0.00 2.06 0.00 72 1004.6
20260508032403 11 254 6.4 17.7 0.00 2.06 0.00 72 1004.6
20260508032306 11 253 6.4 17.7 0.00 2.06 0.00 72 1004.4
20260508032004 11 246 6.4 17.7 0.00 2.06 0.00 72 1004.5
20260508031903 11 244 4.8 12.9 0.00 2.06 0.00 72 1004.6
20260508031804 11 244 4.8 17.7 0.00 2.06 0.00 72 1004.5
20260508031710 11 254 6.4 17.7 0.00 2.06 0.00 72 1004.5
20260508031604 11 256 6.4 17.7 0.00 2.06 0.00 72 1004.4
20260508031505 11 250 6.4 17.7 0.00 2.06 0.00 72 1004.4
20260508031403 11 248 4.8 17.7 0.00 2.06 0.00 72 1004.4
20260508031305 11 245 8.0 17.7 0.00 2.06 0.00 72 1004.3
20260508031207 11 235 8.0 14.5 0.00 2.06 0.00 72 1004.3
20260508031105 11 233 6.4 14.5 0.00 2.06 0.00 72 1004.2
20260508031018 11 234 8.0 14.5 0.00 2.06 0.00 72 1004.0
20260508031006 11 235 6.4 14.5 0.00 2.06 0.00 72 1004.3
20260508030705 11 230 8.0 14.5 0.00 2.06 0.00 72 1004.3
20260508030617 11 226 6.4 14.5 0.00 2.06 0.00 72 1004.3
20260508030604 11 223 6.4 14.5 0.00 2.06 0.00 72 1004.3
20260508030504 11 224 6.4 12.9 0.00 2.06 0.00 72 1004.2
20260508030414 11 228 6.4 12.9 0.00 2.06 0.00 72 1004.2
20260508030304 11 235 4.8 12.9 0.00 2.06 0.00 72 1004.2
20260508030103 11 225 9.7 12.9 0.00 2.06 0.00 72 1004.3
20260508030007 12 226 4.8 12.9 0.00 2.06 0.00 72 1004.3
20260508025904 12 225 3.2 12.9 0.00 2.06 2.06 72 1004.3
20260508025804 12 224 6.4 12.9 0.00 2.06 2.06 71 1004.3
20260508025705 12 231 6.4 17.7 0.00 2.06 2.06 71 1003.9
20260508025605 12 233 6.4 17.7 0.00 2.06 2.06 71 1004.2
20260508025504 12 236 6.4 17.7 0.00 2.06 2.06 71 1004.1
20260508025405 12 236 6.4 17.7 0.00 2.06 2.06 71 1004.2
20260508025306 12 238 8.0 17.7 0.00 2.06 2.06 71 1004.1
20260508025204 12 233 8.0 17.7 0.00 2.06 2.06 71 1004.1
20260508025105 12 226 3.2 17.7 0.00 2.06 2.06 72 1004.2
20260508025004 12 231 9.7 17.7 0.00 2.06 2.06 71 1004.1
20260508024905 12 237 6.4 17.7 0.00 2.06 2.06 72 1004.2
20260508024803 12 230 9.7 14.5 0.00 2.06 2.06 72 1004.1
20260508024703 12 240 6.4 14.5 0.00 2.06 2.06 72 1004.1
20260508024619 12 247 6.4 14.5 0.00 2.06 2.06 72 1004.1
20260508024604 12 251 6.4 17.7 0.00 2.06 2.06 71 1003.9
20260508024503 12 252 8.0 17.7 0.00 2.06 2.06 71 1004.1
20260508024306 12 247 9.7 17.7 0.00 2.06 2.06 71 1003.9
20260508024203 12 243 11.3 17.7 0.00 2.06 2.06 71 1003.9
20260508024103 12 236 8.0 20.9 0.00 2.06 2.06 71 1004.3
20260508024003 12 228 6.4 20.9 0.00 2.06 2.06 71 1004.1
20260508023905 12 230 6.4 20.9 0.00 2.06 2.06 71 1004.2
20260508023807 12 234 6.4 20.9 0.00 2.06 2.06 71 1004.2
20260508023716 12 235 11.3 20.9 0.00 2.06 2.06 71 1003.9
20260508023703 12 236 11.3 20.9 0.00 2.06 2.06 71 1003.9
20260508023604 12 241 11.3 20.9 0.00 2.06 2.06 71 1003.9
20260508023404 12 244 12.9 17.7 0.00 2.06 2.06 71 1003.9
20260508023315 12 243 9.7 17.7 0.00 2.06 2.06 71 1004.0
20260508023305 12 242 9.7 17.7 0.00 2.06 2.06 71 1004.0
20260508023204 12 241 12.9 17.7 0.00 2.06 2.06 71 1004.2
20260508023004 12 238 9.7 14.5 0.00 2.06 2.06 72 1003.7
20260508022906 12 236 6.4 14.5 0.00 2.06 2.06 72 1004.1
20260508022803 12 238 6.4 14.5 0.00 2.06 2.06 72 1003.9
20260508022704 12 239 8.0 14.5 0.00 2.06 2.06 72 1004.0
20260508022605 12 238 3.2 14.5 0.00 2.06 2.06 72 1004.0
20260508022504 12 234 6.4 14.5 0.00 2.06 2.06 71 1003.6
20260508022405 12 233 8.0 14.5 0.00 2.06 2.06 71 1003.8
20260508022307 12 234 4.8 14.5 0.00 2.06 2.06 71 1003.5
20260508022105 12 236 4.8 20.9 0.00 2.06 2.06 71 1004.0
20260508022017 12 244 6.4 20.9 0.00 2.06 2.06 71 1003.6
20260508022004 12 248 6.4 20.9 0.00 2.06 2.06 71 1003.6
20260508021907 12 250 6.4 20.9 0.00 2.06 2.06 71 1003.8
20260508021704 12 246 9.7 20.9 0.00 2.06 2.06 71 1003.9
20260508021604 12 252 6.4 14.5 0.00 2.06 2.06 71 1003.7
20260508021504 12 248 8.0 14.5 0.00 2.06 2.06 71 1003.9
20260508021404 12 239 8.0 14.5 0.00 2.06 2.06 71 1003.9
20260508021208 12 251 6.4 17.7 0.00 2.06 2.06 71 1004.0
20260508021104 12 248 3.2 17.7 0.00 2.06 2.06 71 1003.9
20260508021013 12 242 6.4 17.7 0.00 2.06 2.06 70 1003.9
20260508020917 12 244 9.7 17.7 0.00 2.06 2.06 70 1004.0
20260508020906 12 242 9.7 17.7 0.00 2.06 2.06 70 1004.0
20260508020604 12 240 11.3 17.7 0.00 2.06 2.06 70 1003.9
20260508020504 12 243 6.4 17.7 0.00 2.06 2.06 70 1003.9
20260508020407 12 251 9.7 17.7 0.00 2.06 2.06 70 1003.9
20260508020306 12 255 8.0 17.7 0.00 2.06 2.06 70 1004.0
20260508020203 12 250 8.0 12.9 0.00 2.06 2.06 69 1003.9
20260508020108 13 245 6.4 11.3 0.00 2.06 2.06 70 1003.9
20260508020005 13 245 6.4 11.3 0.00 2.06 2.06 69 1004.1
20260508015810 13 242 6.4 11.3 0.00 2.06 2.06 69 1003.9
20260508015704 13 244 6.4 14.5 0.00 2.06 2.06 69 1004.0
20260508015604 13 234 6.4 17.7 0.00 2.06 2.06 69 1003.9
20260508015504 13 237 4.8 17.7 0.00 2.06 2.06 69 1004.0
20260508015403 13 241 6.4 17.7 0.00 2.06 2.06 69 1003.9
20260508015319 13 237 3.2 17.7 0.00 2.06 2.06 69 1004.0
20260508015306 13 239 3.2 17.7 0.00 2.06 2.06 69 1004.0
20260508015203 13 236 6.4 17.7 0.00 2.06 2.06 68 1003.8
20260508015004 13 250 9.7 20.9 0.00 2.06 2.06 68 1003.9
20260508014906 13 244 8.0 20.9 0.00 2.06 2.06 68 1003.8
20260508014805 13 240 8.0 20.9 0.00 2.06 2.06 68 1003.7
20260508014704 13 241 11.3 20.9 0.00 2.06 2.06 68 1003.8
20260508014604 13 239 9.7 20.9 0.00 2.06 2.06 68 1003.8
20260508014504 13 239 11.3 20.9 0.00 2.06 2.06 68 1003.7
20260508014404 13 243 6.4 17.7 0.00 2.06 2.06 68 1003.7
20260508014304 13 248 9.7 17.7 0.00 2.06 2.06 67 1003.9
20260508014206 13 250 9.7 17.7 0.00 2.06 2.06 67 1003.7
20260508014105 13 248 9.7 17.7 0.00 2.06 2.06 67 1003.9
20260508014004 13 241 6.4 17.7 0.00 2.06 2.06 67 1003.7
20260508013904 13 243 6.4 17.7 0.00 2.06 2.06 67 1003.6
20260508013804 13 237 9.7 20.9 0.00 2.06 2.06 67 1003.7
20260508013705 13 234 6.4 20.9 0.00 2.06 2.06 67 1003.7
20260508013605 13 232 6.4 20.9 0.00 2.06 2.06 67 1003.7
20260508013503 13 237 9.7 20.9 0.00 2.06 2.06 67 1003.7
20260508013403 13 243 9.7 20.9 0.00 2.06 2.06 67 1003.6
20260508013304 13 253 12.9 20.9 0.00 2.06 2.06 67 1003.8
20260508013204 13 259 8.0 17.7 0.00 2.06 2.06 67 1003.6
20260508013105 13 261 6.4 12.9 0.00 2.06 2.06 67 1003.4
20260508013017 13 255 6.4 14.5 0.00 2.06 2.06 67 1003.7
20260508013004 13 252 6.4 17.7 0.00 2.06 2.06 66 1003.5
20260508012907 13 240 6.4 20.9 0.00 2.06 2.06 66 1003.6
20260508012705 13 239 6.4 22.5 0.00 2.06 2.06 66 1003.6
20260508012604 13 241 9.7 22.5 0.00 2.06 2.06 66 1003.7
20260508012503 13 248 11.3 22.5 0.00 2.06 2.06 66 1003.4
20260508012413 13 255 12.9 22.5 0.00 2.06 2.06 66 1003.7
20260508012406 13 258 12.9 22.5 0.00 2.06 2.06 66 1003.7
20260508012308 13 255 12.9 22.5 0.00 2.06 2.06 66 1003.6
20260508012005 13 248 11.3 17.7 0.00 2.06 2.06 66 1003.9
20260508011903 13 239 6.4 17.7 0.00 2.06 2.06 66 1003.7
20260508011806 13 238 11.3 20.9 0.00 2.06 2.06 65 1003.6
20260508011704 13 233 6.4 20.9 0.00 2.06 2.06 65 1003.8
20260508011604 13 226 6.4 20.9 0.00 2.06 2.06 65 1003.8
20260508011504 13 221 9.7 20.9 0.00 2.06 2.06 65 1003.6
20260508011408 13 220 9.7 20.9 0.00 2.06 2.06 65 1003.6
20260508011304 13 220 14.5 20.9 0.00 2.06 2.06 65 1003.9
20260508011204 13 230 8.0 17.7 0.00 2.06 2.06 65 1003.7
20260508011103 13 232 9.7 17.7 0.00 2.06 2.06 65 1003.8
20260508011004 13 232 6.4 17.7 0.00 2.06 2.06 65 1003.7
20260508010805 13 226 9.7 17.7 0.00 2.06 2.06 65 1003.7
20260508010703 13 225 8.0 17.7 0.00 2.06 2.06 65 1003.6
20260508010603 13 227 9.7 17.7 0.00 2.06 2.06 64 1004.1
20260508010503 13 230 11.3 17.7 0.00 2.06 2.06 64 1003.8
20260508010404 13 236 8.0 14.5 0.00 2.06 2.06 65 1003.8
20260508010304 13 245 6.4 22.5 0.00 2.06 2.06 65 1003.8
20260508010203 13 248 4.8 22.5 0.00 2.06 2.06 64 1003.7
20260508010107 13 246 8.0 22.5 0.00 2.06 2.06 64 1003.9
20260508010005 14 241 8.0 22.5 0.00 2.06 2.06 64 1003.8
20260508005903 13 240 11.3 22.5 0.00 2.06 2.06 64 1003.6
20260508005804 14 239 12.9 22.5 0.00 2.06 2.06 64 1003.7
20260508005704 13 240 6.4 22.5 0.00 2.06 2.06 64 1003.8
20260508005603 13 232 8.0 22.5 0.00 2.06 2.06 64 1003.8
20260508005505 14 233 6.4 22.5 0.00 2.06 2.06 64 1003.8
20260508005404 14 228 9.7 22.5 0.00 2.06 2.06 64 1003.8
20260508005305 14 223 11.3 22.5 0.00 2.06 2.06 64 1003.7
20260508005204 14 226 12.9 22.5 0.00 2.06 2.06 63 1003.7
20260508005104 14 232 11.3 22.5 0.00 2.06 2.06 63 1003.7
20260508005016 14 238 12.9 22.5 0.00 2.06 2.06 63 1003.8
20260508005005 14 240 12.9 22.5 0.00 2.06 2.06 63 1003.8
20260508004904 14 247 8.0 22.5 0.00 2.06 2.06 64 1003.8
20260508004704 14 232 11.3 22.5 0.00 2.06 2.06 63 1004.0
20260508004604 14 229 12.9 24.1 0.00 2.06 2.06 63 1003.6
20260508004514 14 232 9.7 24.1 0.00 2.06 2.06 63 1003.7
20260508004504 14 231 9.7 24.1 0.00 2.06 2.06 63 1003.7
20260508004404 14 221 8.0 24.1 0.00 2.06 2.06 63 1003.8
20260508004205 14 232 11.3 24.1 0.00 2.06 2.06 63 1003.6
20260508004104 14 228 12.9 24.1 0.00 2.06 2.06 63 1003.8
20260508004004 14 220 9.7 20.9 0.00 2.06 2.06 63 1003.7
20260508003906 14 229 9.7 20.9 0.00 2.06 2.06 63 1003.7
20260508003819 14 234 12.9 25.7 0.00 2.06 2.06 63 1003.7
20260508003805 14 234 11.3 25.7 0.00 2.06 2.06 63 1003.6
20260508003704 14 241 8.0 25.7 0.00 2.06 2.06 63 1003.8
20260508003504 14 243 8.0 25.7 0.00 2.06 2.06 62 1003.8
20260508003404 14 238 16.1 25.7 0.00 2.06 2.06 62 1003.8
20260508003303 14 239 12.9 24.1 0.00 2.06 2.06 62 1003.6
20260508003207 14 245 12.9 24.1 0.00 2.06 2.06 62 1003.5
20260508003104 14 236 12.9 24.1 0.00 2.06 2.06 62 1003.5
20260508003018 14 238 11.3 24.1 0.00 2.06 2.06 62 1003.9
20260508003005 14 240 8.0 24.1 0.00 2.06 2.06 62 1003.7
20260508002904 14 246 12.9 24.1 0.00 2.06 2.06 62 1003.5
20260508002815 14 244 11.3 27.4 0.00 2.06 2.06 62 1003.5
20260508002707 14 245 12.9 27.4 0.00 2.06 2.06 62 1003.6
20260508002617 14 244 14.5 27.4 0.00 2.06 2.06 61 1003.5
20260508002503 14 244 6.4 27.4 0.00 2.06 2.06 61 1003.5
20260508002306 14 232 12.9 27.4 0.00 2.06 2.06 61 1003.6
20260508002205 15 229 11.3 27.4 0.00 2.06 2.06 61 1003.7
20260508002104 15 229 6.4 27.4 0.00 2.06 2.06 61 1003.8
20260508002006 15 221 12.9 27.4 0.00 2.06 2.06 61 1003.6
20260508001904 15 218 12.9 27.4 0.00 2.06 2.06 61 1003.5
20260508001804 15 222 12.9 27.4 0.00 2.06 2.06 61 1003.7
20260508001705 15 214 12.9 27.4 0.00 2.06 2.06 61 1003.7
20260508001603 15 212 11.3 27.4 0.00 2.06 2.06 60 1003.7
20260508001505 15 217 12.9 27.4 0.00 2.06 2.06 60 1003.8
20260508001404 15 230 9.7 32.2 0.00 2.06 2.06 60 1003.8
20260508001303 15 229 9.7 32.2 0.00 2.06 2.06 60 1003.6
20260508001204 15 245 12.9 33.8 0.00 2.06 2.06 60 1003.7
20260508001103 15 252 9.7 33.8 0.00 2.06 2.06 60 1003.7
20260508001004 15 253 16.1 33.8 0.00 2.06 2.06 60 1003.7
20260508000905 15 255 12.9 33.8 0.00 2.06 2.06 60 1003.8
20260508000803 15 256 16.1 33.8 0.00 2.06 2.06 60 1003.5
20260508000705 15 246 20.9 33.8 0.00 2.06 2.06 60 1003.8
20260508000503 15 250 11.3 29.0 0.00 2.06 2.06 61 1003.6
20260508000405 15 251 11.3 29.0 0.00 2.06 2.06 61 1003.8
20260508000305 15 252 14.5 29.0 0.00 2.06 2.06 61 1003.7
20260508000205 15 246 14.5 29.0 0.00 2.06 2.06 61 1003.7
20260508000107 15 235 6.4 24.1 0.00 2.06 2.06 62 1003.5
20260508000005 15 223 11.3 27.4 0.00 2.06 2.06 61 1003.7
20260507235903 15 222 8.0 27.4 0.00 2.06 2.06 61 1003.9
20260507235817 15 223 11.3 27.4 0.00 2.06 2.06 61 1003.7
20260507235804 15 222 12.9 27.4 0.00 2.06 2.06 61 1003.8
20260507235705 15 230 9.7 27.4 0.00 2.06 2.06 61 1003.7
20260507235504 15 241 17.7 27.4 0.00 2.06 2.06 61 1003.8
20260507235404 15 240 14.5 25.7 0.00 2.06 2.06 61 1003.9
20260507235205 15 240 6.4 17.7 0.00 2.06 2.06 62 1003.7
20260507235105 15 240 8.0 17.7 0.00 2.06 2.06 62 1003.8
20260507235004 15 244 11.3 17.7 0.00 2.06 2.06 62 1003.7
20260507234905 15 258 6.4 14.5 0.00 2.06 2.06 62 1003.8
20260507234813 15 263 6.4 22.5 0.00 2.06 2.06 62 1003.9
20260507234804 15 262 6.4 22.5 0.00 2.06 2.06 62 1003.9
20260507234704 15 257 6.4 22.5 0.00 2.06 2.06 62 1003.9
20260507234507 15 243 6.4 22.5 0.00 2.06 2.06 62 1003.9
20260507234404 15 234 6.4 22.5 0.00 2.06 2.06 62 1004.0
20260507234303 15 233 12.9 22.5 0.00 2.06 2.06 62 1003.8
20260507234203 15 234 9.7 22.5 0.00 2.06 2.06 62 1004.0
20260507234105 15 226 12.9 22.5 0.00 2.06 2.06 62 1003.7
20260507234004 15 222 9.7 22.5 0.00 2.06 2.06 62 1003.6
20260507233906 15 222 11.3 22.5 0.00 2.06 2.06 62 1003.9
20260507233803 15 212 14.5 22.5 0.00 2.06 2.06 62 1003.8
20260507233718 15 205 8.0 20.9 0.00 2.06 2.06 62 1004.1
20260507233604 15 219 8.0 22.5 0.00 2.06 2.06 62 1003.9
20260507233407 15 226 6.4 22.5 0.00 2.06 2.06 62 1004.0
20260507233303 15 232 6.4 22.5 0.00 2.06 2.06 62 1003.8
20260507233203 15 230 11.3 22.5 0.00 2.06 2.06 61 1003.9
20260507233104 15 229 12.9 22.5 0.00 2.06 2.06 61 1003.8
20260507233004 15 242 11.3 20.9 0.00 2.06 2.06 62 1004.1
20260507232905 15 246 9.7 20.9 0.00 2.06 2.06 62 1003.9
20260507232804 15 246 9.7 20.9 0.00 2.06 2.06 62 1004.1
20260507232703 15 245 4.8 20.9 0.00 2.06 2.06 62 1004.2
20260507232605 15 237 12.9 20.9 0.00 2.06 2.06 62 1004.0
20260507232504 15 216 11.3 17.7 0.00 2.06 2.06 62 1003.9
20260507232403 15 211 6.4 17.7 0.00 2.06 2.06 62 1003.8
20260507232308 15 210 9.7 17.7 0.00 2.06 2.06 62 1003.8
20260507232203 15 209 8.0 22.5 0.00 2.06 2.06 62 1003.8
20260507232115 15 216 8.0 22.5 0.00 2.06 2.06 62 1003.7
20260507232106 15 218 8.0 22.5 0.00 2.06 2.06 62 1003.7
20260507232014 15 222 11.3 22.5 0.00 2.06 2.06 62 1004.1
20260507232006 15 224 11.3 22.5 0.00 2.06 2.06 62 1004.1
20260507231913 15 225 9.7 22.5 0.00 2.06 2.06 62 1003.9
20260507231816 15 225 9.7 22.5 0.00 2.06 2.06 62 1004.0
20260507231505 15 234 3.2 20.9 0.00 2.06 2.06 63 1003.9
20260507231416 15 238 6.4 20.9 0.00 2.06 2.06 63 1004.1
20260507231404 15 240 6.4 20.9 0.00 2.06 2.06 63 1004.1
20260507231303 15 244 6.4 20.9 0.00 2.06 2.06 63 1004.1
20260507231103 15 231 11.3 20.9 0.00 2.06 2.06 63 1003.9
20260507231004 15 227 8.0 17.7 0.00 2.06 2.06 64 1004.1
20260507230904 15 226 6.4 17.7 0.00 2.06 2.06 64 1003.9
20260507230805 15 227 8.0 17.7 0.00 2.06 2.06 63 1004.1
20260507230707 15 228 9.7 17.7 0.00 2.06 2.06 63 1004.1
20260507230604 15 234 9.7 17.7 0.00 2.06 2.06 64 1004.3
20260507230505 15 232 8.0 17.7 0.00 2.06 2.06 64 1003.7
20260507230405 15 231 8.0 17.7 0.00 2.06 2.06 64 1004.2
20260507230304 15 231 8.0 17.7 0.00 2.06 2.06 64 1004.1
20260507230106 15 233 9.7 17.7 0.00 2.06 2.06 63 1003.7
20260507230006 15 229 9.7 17.7 0.00 2.06 2.06 63 1003.9
20260507225905 15 223 9.7 17.7 0.00 2.06 2.06 64 1004.0
20260507225803 15 218 11.3 17.7 0.00 2.06 2.06 64 1004.0
20260507225705 15 215 9.7 17.7 0.00 2.06 2.06 64 1003.9
20260507225615 15 213 6.4 14.5 0.00 2.06 2.06 64 1003.8
20260507225605 15 214 6.4 14.5 0.00 2.06 2.06 64 1003.8
20260507225505 15 219 8.0 14.5 0.00 2.06 2.06 64 1003.8
20260507225418 15 223 8.0 14.5 0.00 2.06 2.06 64 1003.7
20260507225306 15 225 3.2 12.9 0.00 2.06 2.06 65 1003.9
20260507225104 15 237 6.4 14.5 0.00 2.06 2.06 64 1003.7
20260507225004 15 234 6.4 14.5 0.00 2.06 2.06 64 1003.7
20260507224916 15 235 6.4 14.5 0.00 2.06 2.06 64 1003.8
20260507224903 15 234 6.4 14.5 0.00 2.06 2.06 64 1003.8
20260507224804 15 236 4.8 14.5 0.00 2.06 2.06 64 1003.7
20260507224604 15 233 6.4 14.5 0.00 2.06 2.06 64 1003.7
20260507224504 15 236 6.4 14.5 0.00 2.06 2.06 64 1003.7
20260507224404 15 244 6.4 14.5 0.00 2.06 2.06 64 1003.7
20260507224305 15 242 6.4 14.5 0.00 2.06 2.06 64 1003.7
20260507224205 15 235 6.4 14.5 0.00 2.06 2.06 64 1003.8
20260507224104 15 231 3.2 14.5 0.00 2.06 2.06 64 1003.6
20260507224003 15 233 6.4 14.5 0.00 2.06 2.06 64 1003.6
20260507223904 15 228 6.4 14.5 0.00 2.06 2.06 64 1003.4
20260507223807 15 228 3.2 17.7 0.00 2.06 2.06 64 1003.6
20260507223617 15 236 8.0 17.7 0.00 2.06 2.06 64 1003.9
20260507223603 15 238 8.0 17.7 0.00 2.06 2.06 64 1003.9
20260507223503 15 239 6.4 17.7 0.00 2.06 2.06 64 1003.5
20260507223204 15 244 8.0 12.9 0.00 2.06 2.06 64 1003.6
20260507223103 15 239 6.4 12.9 0.00 2.06 2.06 64 1003.5
20260507223007 15 238 6.4 12.9 0.00 2.06 2.06 64 1003.5
20260507222917 15 241 3.2 12.9 0.00 2.06 2.06 64 1003.6
20260507222905 15 242 3.2 12.9 0.00 2.06 2.06 64 1003.6
20260507222816 15 241 6.4 12.9 0.00 2.06 2.06 64 1003.6
20260507222804 15 240 6.4 12.9 0.00 2.06 2.06 64 1003.6
20260507222618 15 234 6.4 12.9 0.00 2.06 2.06 64 1003.4
20260507222504 15 228 4.8 12.9 0.00 2.06 2.06 64 1003.6
20260507222306 15 224 6.4 12.9 0.00 2.06 2.06 63 1003.4
20260507222204 15 227 6.4 14.5 0.00 2.06 2.06 64 1003.5
20260507222103 15 237 6.4 17.7 0.00 2.06 2.06 64 1003.5
20260507222015 15 238 6.4 17.7 0.00 2.06 2.06 63 1003.3
20260507222004 15 239 6.4 17.7 0.00 2.06 2.06 63 1003.3
20260507221903 15 238 4.8 17.7 0.00 2.06 2.06 63 1003.3
20260507221607 15 243 9.7 17.7 0.00 2.06 2.06 63 1003.4
20260507221503 15 245 9.7 17.7 0.00 2.06 2.06 63 1003.0
20260507221403 15 255 8.0 14.5 0.00 2.06 2.06 63 1003.3
20260507221305 15 264 6.4 12.9 0.00 2.06 2.06 63 1003.2
20260507221204 15 260 6.4 12.9 0.00 2.06 2.06 63 1003.4
20260507221104 15 250 6.4 12.9 0.00 2.06 2.06 63 1003.4
20260507221004 15 245 6.4 12.9 0.00 2.06 2.06 63 1003.5
20260507220914 15 245 6.4 12.9 0.00 2.06 2.06 63 1003.4
20260507220903 15 246 6.4 12.9 0.00 2.06 2.06 63 1003.4
20260507220818 15 241 6.4 14.5 0.00 2.06 2.06 63 1003.3
20260507220805 15 239 6.4 14.5 0.00 2.06 2.06 63 1003.3
20260507220716 15 232 6.4 14.5 0.00 2.06 2.06 63 1003.3
20260507220405 15 234 6.4 22.5 0.00 2.06 2.06 63 1003.5
20260507220305 15 235 9.7 22.5 0.00 2.06 2.06 63 1003.2
20260507220204 15 241 8.0 22.5 0.00 2.06 2.06 63 1003.1
20260507220104 15 239 8.0 22.5 0.00 2.06 2.06 63 1003.3
20260507220005 15 230 8.0 22.5 0.00 2.06 2.06 63 1003.3
20260507215819 15 233 8.0 17.7 0.00 2.06 2.06 63 1003.3
20260507215804 15 234 8.0 20.9 0.00 2.06 2.06 63 1003.3
20260507215704 15 238 6.4 20.9 0.00 2.06 2.06 63 1002.9
20260507215504 15 258 8.0 20.9 0.00 2.06 2.06 63 1002.9
20260507215404 15 256 6.4 22.5 0.00 2.06 2.06 63 1002.8
20260507215307 15 250 12.9 22.5 0.00 2.06 2.06 62 1002.9
20260507215204 15 254 9.7 22.5 0.00 2.06 2.06 62 1002.8
20260507215104 15 249 6.4 22.5 0.00 2.06 2.06 63 1002.8
20260507215017 15 238 9.7 22.5 0.00 2.06 2.06 62 1002.8
20260507215004 15 233 12.9 22.5 0.00 2.06 2.06 62 1002.8
20260507214905 15 235 6.4 17.7 0.00 2.06 2.06 63 1002.6
20260507214704 15 235 6.4 17.7 0.00 2.06 2.06 63 1002.8
20260507214617 15 231 9.7 20.9 0.00 2.06 2.06 63 1002.8
20260507214605 15 232 11.3 20.9 0.00 2.06 2.06 63 1002.7
20260507214504 15 233 8.0 20.9 0.00 2.06 2.06 63 1002.5
20260507214304 15 233 6.4 20.9 0.00 2.06 2.06 63 1002.6
20260507214204 15 225 6.4 20.9 0.00 2.06 2.06 63 1002.8
20260507214104 15 230 4.8 17.7 0.00 2.06 2.06 63 1002.6
20260507214003 15 243 4.8 17.7 0.00 2.06 2.06 63 1002.8
20260507213907 15 255 6.4 17.7 0.00 2.06 2.06 63 1002.7
20260507213816 15 252 6.4 17.7 0.00 2.06 2.06 63 1002.6
20260507213803 15 251 9.7 17.7 0.00 2.06 2.06 63 1002.6
20260507213703 15 260 12.9 17.7 0.00 2.06 2.06 62 1002.6
20260507213618 15 263 8.0 17.7 0.00 2.06 2.06 63 1002.8
20260507213505 15 261 9.7 17.7 0.00 2.06 2.06 62 1002.7
20260507213205 15 246 8.0 12.9 0.00 2.06 2.06 63 1002.5
20260507213104 15 238 3.2 17.7 0.00 2.06 2.06 63 1002.6
20260507213005 15 230 6.4 17.7 0.00 2.06 2.06 63 1002.3
20260507212905 15 226 6.4 17.7 0.00 2.06 2.06 62 1002.3
20260507212804 15 226 6.4 17.7 0.00 2.06 2.06 62 1002.5
20260507212704 15 224 6.4 17.7 0.00 2.06 2.06 62 1002.3
20260507212603 15 231 6.4 17.7 0.00 2.06 2.06 62 1002.5
20260507212505 15 238 4.8 24.1 0.00 2.06 2.06 62 1002.2
20260507212403 15 247 8.0 24.1 0.00 2.06 2.06 62 1002.4
20260507212306 15 247 6.4 24.1 0.00 2.06 2.06 62 1002.3
20260507212204 16 252 6.4 24.1 0.00 2.06 2.06 62 1002.4
20260507212104 15 245 8.0 24.1 0.00 2.06 2.06 62 1002.1
20260507212005 15 255 12.9 24.1 0.00 2.06 2.06 61 1002.4
20260507211905 15 245 8.0 24.1 0.00 2.06 2.06 62 1002.2
20260507211805 16 241 6.4 24.1 0.00 2.06 2.06 62 1002.3
20260507211705 16 239 11.3 24.1 0.00 2.06 2.06 61 1002.2
20260507211604 16 242 8.0 24.1 0.00 2.06 2.06 61 1001.9
20260507211506 16 237 12.9 24.1 0.00 2.06 2.06 61 1002.5
20260507211404 16 239 12.9 22.5 0.00 2.06 2.06 61 1002.2
20260507211304 16 239 8.0 22.5 0.00 2.06 2.06 61 1002.3
20260507211205 16 231 11.3 22.5 0.00 2.06 2.06 61 1002.3
20260507211104 16 232 11.3 24.1 0.00 2.06 2.06 61 1002.3
20260507211004 16 227 6.4 24.1 0.00 2.06 2.06 61 1002.2
20260507210905 16 227 6.4 24.1 0.00 2.06 2.06 61 1002.5
20260507210803 16 223 9.7 24.1 0.00 2.06 2.06 61 1002.3
20260507210707 16 231 11.3 24.1 0.00 2.06 2.06 61 1002.2
20260507210604 16 236 6.4 20.9 0.00 2.06 2.06 61 1002.4
20260507210504 16 237 4.8 20.9 0.00 2.06 2.06 61 1002.1
20260507210404 16 234 9.7 22.5 0.00 2.06 2.06 61 1001.9
20260507210304 16 241 6.4 24.1 0.00 2.06 2.06 61 1002.1
20260507210206 16 238 6.4 24.1 0.00 2.06 2.06 61 1002.1
20260507210104 16 231 8.0 24.1 0.00 2.06 2.06 61 1002.0
20260507210005 16 229 9.7 24.1 0.00 2.06 2.06 61 1002.1
20260507205905 16 229 14.5 24.1 0.00 2.06 2.06 61 1002.0
20260507205805 16 225 12.9 22.5 0.00 2.06 2.06 61 1002.3
20260507205704 16 225 12.9 22.5 0.00 2.06 2.06 61 1001.9
20260507205604 16 225 9.7 27.4 0.00 2.06 2.06 61 1002.0
20260507205404 16 225 14.5 27.4 0.00 2.06 2.06 61 1001.9
20260507205306 16 226 9.7 27.4 0.00 2.06 2.06 61 1002.1
20260507205205 16 232 9.7 27.4 0.00 2.06 2.06 61 1002.2
20260507205104 16 232 12.9 27.4 0.00 2.06 2.06 60 1002.0
20260507205004 16 234 11.3 27.4 0.00 2.06 2.06 60 1002.1
20260507204903 16 229 14.5 27.4 0.00 2.06 2.06 60 1001.8
20260507204805 16 227 6.4 27.4 0.00 2.06 2.06 60 1002.0
20260507204703 16 224 9.7 27.4 0.00 2.06 2.06 60 1002.2
20260507204603 16 222 11.3 27.4 0.00 2.06 2.06 60 1002.0
20260507204504 16 227 9.7 27.4 0.00 2.06 2.06 60 1002.0
20260507204403 16 231 11.3 24.1 0.00 2.06 2.06 60 1002.2
20260507204308 16 226 9.7 24.1 0.00 2.06 2.06 60 1002.2
20260507204203 16 227 14.5 24.1 0.00 2.06 2.06 60 1002.1
20260507204104 16 232 17.7 24.1 0.00 2.06 2.06 60 1002.5
20260507204005 16 231 8.0 24.1 0.00 2.06 2.06 60 1002.4
20260507203904 16 228 8.0 24.1 0.00 2.06 2.06 60 1002.5
20260507203803 16 236 9.7 24.1 0.00 2.06 2.06 60 1002.2
20260507203703 16 237 9.7 24.1 0.00 2.06 2.06 60 1002.2
20260507203603 16 237 12.9 24.1 0.00 2.06 2.06 60 1002.2
20260507203505 16 236 12.9 24.1 0.00 2.06 2.06 60 1002.2
20260507203415 16 243 12.9 24.1 0.00 2.06 2.06 60 1002.2
20260507203404 16 243 14.5 24.1 0.00 2.06 2.06 60 1002.4
20260507203303 16 239 12.9 22.5 0.00 2.06 2.06 60 1002.2
20260507203104 16 248 9.7 22.5 0.00 2.06 2.06 60 1002.3
20260507203015 16 246 9.7 22.5 0.00 2.06 2.06 60 1002.0
20260507203007 16 247 12.9 22.5 0.00 2.06 2.06 60 1002.2
20260507202904 16 244 11.3 22.5 0.00 2.06 2.06 60 1002.2
20260507202817 16 244 12.9 22.5 0.00 2.06 2.06 59 1002.3
20260507202704 16 242 9.7 22.5 0.00 2.06 2.06 59 1002.3
20260507202504 16 227 8.0 22.5 0.00 2.06 2.06 60 1002.3
20260507202406 16 222 14.5 22.5 0.00 2.06 2.06 59 1002.2
20260507202320 16 226 8.0 27.4 0.00 2.06 2.06 60 1002.5
20260507202306 16 228 8.0 27.4 0.00 2.06 2.06 60 1002.5
20260507202205 16 228 11.3 27.4 0.00 2.06 2.06 59 1002.3
20260507202004 16 237 9.7 27.4 0.00 2.06 2.06 59 1002.4
20260507201904 16 244 11.3 27.4 0.00 2.06 2.06 59 1002.4
20260507201717 16 242 11.3 24.1 0.00 2.06 2.06 59 1002.5
20260507201705 16 239 11.3 24.1 0.00 2.06 2.06 59 1002.5
20260507201604 16 235 8.0 24.1 0.00 2.06 2.06 59 1002.3
20260507201403 16 215 12.9 32.2 0.00 2.06 2.06 59 1002.2
20260507201305 16 212 9.7 32.2 0.00 2.06 2.06 58 1002.1
20260507201205 16 210 11.3 32.2 0.00 2.06 2.06 58 1002.2
20260507201104 16 211 9.7 32.2 0.00 2.06 2.06 58 1002.4
20260507201017 16 216 16.1 32.2 0.00 2.06 2.06 58 1002.0
20260507201004 16 216 12.9 27.4 0.00 2.06 2.06 58 1002.4
20260507200706 16 233 12.9 27.4 0.00 2.06 2.06 59 1002.4
20260507200603 16 221 9.7 27.4 0.00 2.06 2.06 58 1002.2
20260507200404 16 229 12.9 27.4 0.00 2.06 2.06 58 1002.0
20260507200304 16 227 8.0 32.2 0.00 2.06 2.06 59 1001.9
20260507200216 16 218 8.0 32.2 0.00 2.06 2.06 58 1002.1
20260507200205 16 218 16.1 32.2 0.00 2.06 2.06 58 1002.3
20260507200104 16 234 16.1 32.2 0.00 2.06 2.06 58 1002.0
20260507195903 16 232 17.7 35.4 0.00 2.06 2.06 58 1002.2
20260507195803 16 232 12.9 35.4 0.00 2.06 2.06 57 1002.3
20260507195704 16 245 9.7 37.0 0.00 2.06 2.06 58 1002.5
20260507195604 16 245 14.5 37.0 0.00 2.06 2.06 57 1002.4
20260507195505 16 247 12.9 37.0 0.00 2.06 2.06 57 1002.3
20260507195408 16 253 22.5 37.0 0.00 2.06 2.06 57 1002.5